SSL607 KMCO-LOWW

Flight info

Callsign SSL607
Flight time 9h 47m
Altitude 33000
Route MZULO3 LENDS COACH EAAGL HAAYY AZEZU KN57E LACKS JOBOC 4160N 4250N 4340N 4330N 4320N MUDOS ROXER NOLSA MARIO SINDO PIVUS DIBER NETUP STP RAPED PIGOS EKSID NOSTA LUKIM MALUG ARALD ABTAN
Aircraft A388/J-SADE2E3FGHIJ3J4J5M1RWXY/LB1D1

Departure

Time 2026-04-25 12:21
Airport Orlando International Airport (KMCO)

Arrival

Time 2026-04-25 22:08
Airport Vienna International Airport (LOWW)
Time Latitude Longitude Altitude Speed Heading
2026-04-25 10:57 28.42616 -81.31210 107 ft 0 kts 325°
2026-04-25 11:58 28.42604 -81.31201 106 ft 4 kts 334°
2026-04-25 11:58 28.42591 -81.31197 110 ft 3 kts 295°
2026-04-25 11:58 28.42589 -81.31172 88 ft 4 kts 238°
2026-04-25 11:58 28.42603 -81.31149 106 ft 2 kts 241°
2026-04-25 11:59 28.42603 -81.31148 106 ft 2 kts 241°
2026-04-25 12:01 28.42602 -81.31151 107 ft 1 kts 234°
2026-04-25 12:02 28.42550 -81.31180 108 ft 7 kts 202°
2026-04-25 12:02 28.42496 -81.31211 107 ft 10 kts 210°
2026-04-25 12:02 28.42437 -81.31252 106 ft 5 kts 212°
2026-04-25 12:03 28.42435 -81.31253 107 ft 0 kts 212°
2026-04-25 12:06 28.42402 -81.31277 106 ft 7 kts 204°
2026-04-25 12:06 28.42363 -81.31270 108 ft 7 kts 135°
2026-04-25 12:06 28.42347 -81.31215 105 ft 9 kts 98°
2026-04-25 12:06 28.42336 -81.31140 106 ft 11 kts 100°
2026-04-25 12:07 28.42322 -81.31049 105 ft 12 kts 97°
2026-04-25 12:07 28.42319 -81.30947 105 ft 13 kts 87°
2026-04-25 12:07 28.42326 -81.30838 105 ft 14 kts 85°
2026-04-25 12:07 28.42332 -81.30750 108 ft 11 kts 85°
2026-04-25 12:08 28.42338 -81.30661 110 ft 12 kts 85°
2026-04-25 12:08 28.42339 -81.30652 111 ft 1 kts 85°
2026-04-25 12:08 28.42340 -81.30640 111 ft 2 kts 85°
2026-04-25 12:08 28.42342 -81.30608 111 ft 5 kts 85°
2026-04-25 12:09 28.42345 -81.30566 108 ft 7 kts 85°
2026-04-25 12:09 28.42349 -81.30512 111 ft 8 kts 85°
2026-04-25 12:09 28.42355 -81.30425 106 ft 15 kts 85°
2026-04-25 12:09 28.42361 -81.30309 108 ft 15 kts 87°
2026-04-25 12:10 28.42362 -81.30195 108 ft 14 kts 90°
2026-04-25 12:10 28.42362 -81.30108 106 ft 9 kts 89°
2026-04-25 12:10 28.42362 -81.30036 106 ft 10 kts 90°
2026-04-25 12:10 28.42363 -81.29951 106 ft 12 kts 90°
2026-04-25 12:11 28.42363 -81.29857 108 ft 11 kts 90°
2026-04-25 12:11 28.42398 -81.29800 106 ft 9 kts 18°
2026-04-25 12:11 28.42450 -81.29794 107 ft 7 kts 356°
2026-04-25 12:11 28.42500 -81.29796 107 ft 7 kts
2026-04-25 12:12 28.42548 -81.29796 108 ft 7 kts 360°
2026-04-25 12:12 28.42596 -81.29796 108 ft 7 kts 359°
2026-04-25 12:12 28.42645 -81.29796 108 ft 7 kts 359°
2026-04-25 12:12 28.42695 -81.29797 108 ft 7 kts 360°
2026-04-25 12:13 28.42749 -81.29797 108 ft 9 kts 360°
2026-04-25 12:13 28.42813 -81.29797 108 ft 11 kts 360°
2026-04-25 12:13 28.42891 -81.29798 108 ft 11 kts 359°
2026-04-25 12:13 28.42966 -81.29799 108 ft 10 kts 359°
2026-04-25 12:14 28.43037 -81.29800 106 ft 10 kts 359°
2026-04-25 12:14 28.43103 -81.29801 107 ft 9 kts 359°
2026-04-25 12:14 28.43171 -81.29802 107 ft 13 kts 359°
2026-04-25 12:14 28.43238 -81.29803 107 ft 7 kts 359°
2026-04-25 12:15 28.43251 -81.29803 107 ft 0 kts 359°
2026-04-25 12:15 28.43252 -81.29803 107 ft 1 kts 359°
2026-04-25 12:15 28.43302 -81.29803 107 ft 9 kts
2026-04-25 12:16 28.43373 -81.29803 107 ft 11 kts 359°
2026-04-25 12:16 28.43455 -81.29805 105 ft 12 kts 359°
2026-04-25 12:16 28.43523 -81.29800 107 ft 10 kts 24°
2026-04-25 12:16 28.43549 -81.29727 107 ft 5 kts 89°
2026-04-25 12:17 28.43549 -81.29726 107 ft 0 kts 89°
2026-04-25 12:19 28.43550 -81.29667 106 ft 11 kts 89°
2026-04-25 12:20 28.43533 -81.29600 106 ft 6 kts 143°
2026-04-25 12:20 28.43507 -81.29588 109 ft 1 kts 173°
2026-04-25 12:20 28.43432 -81.29583 107 ft 38 kts 180°
2026-04-25 12:21 28.42906 -81.29580 109 ft 111 kts 180°
2026-04-25 12:21 28.41937 -81.29575 110 ft 161 kts 179°
2026-04-25 12:21 28.40754 -81.29561 457 ft 170 kts 180°
2026-04-25 12:21 28.39598 -81.29577 1060 ft 163 kts 180°
2026-04-25 12:22 28.38470 -81.29411 1429 ft 167 kts 161°
2026-04-25 12:22 28.37451 -81.28763 1793 ft 173 kts 144°
2026-04-25 12:22 28.36428 -81.27931 1934 ft 189 kts 148°
2026-04-25 12:22 28.35286 -81.27076 2024 ft 204 kts 146°
2026-04-25 12:23 28.34147 -81.25974 2185 ft 226 kts 134°
2026-04-25 12:23 28.33024 -81.24615 2410 ft 247 kts 134°
2026-04-25 12:23 28.31787 -81.23156 2742 ft 263 kts 134°
2026-04-25 12:23 28.30505 -81.21654 3385 ft 266 kts 134°
2026-04-25 12:24 28.29211 -81.20139 4033 ft 269 kts 134°
2026-04-25 12:24 28.27907 -81.18611 4676 ft 271 kts 134°
2026-04-25 12:24 28.26792 -81.16886 5285 ft 274 kts 111°
2026-04-25 12:24 28.26457 -81.14772 5920 ft 275 kts 84°
2026-04-25 12:25 28.27006 -81.12716 6539 ft 275 kts 57°
2026-04-25 12:25 28.28167 -81.10966 7089 ft 280 kts 49°
2026-04-25 12:25 28.29445 -81.09288 7679 ft 283 kts 48°
2026-04-25 12:25 28.30723 -81.07576 8277 ft 286 kts 49°
2026-04-25 12:26 28.31965 -81.05835 8864 ft 289 kts 50°
2026-04-25 12:26 28.33213 -81.04026 9455 ft 293 kts 50°
2026-04-25 12:26 28.34464 -81.02182 10027 ft 297 kts 50°
2026-04-25 12:26 28.35744 -81.00285 10316 ft 311 kts 50°
2026-04-25 12:27 28.37097 -80.98280 10468 ft 327 kts 50°
2026-04-25 12:27 28.38512 -80.96179 10622 ft 342 kts 50°
2026-04-25 12:27 28.39978 -80.94000 11006 ft 349 kts 51°
2026-04-25 12:27 28.41458 -80.91797 11518 ft 352 kts 50°
2026-04-25 12:28 28.42947 -80.89582 12036 ft 355 kts 51°
2026-04-25 12:28 28.44454 -80.87339 12535 ft 358 kts 51°
2026-04-25 12:28 28.45969 -80.85079 13064 ft 361 kts 52°
2026-04-25 12:28 28.47238 -80.82602 13544 ft 366 kts 65°
2026-04-25 12:29 28.47986 -80.79818 14014 ft 371 kts 78°
2026-04-25 12:29 28.48297 -80.76935 14429 ft 375 kts 82°
2026-04-25 12:29 28.48609 -80.73974 14868 ft 378 kts 81°
2026-04-25 12:29 28.48940 -80.71006 15295 ft 381 kts 81°
2026-04-25 12:30 28.49279 -80.68003 15726 ft 384 kts 81°
2026-04-25 12:30 28.49618 -80.64982 16113 ft 387 kts 81°
2026-04-25 12:30 28.49959 -80.61931 16518 ft 390 kts 81°
2026-04-25 12:30 28.50299 -80.58858 16928 ft 393 kts 81°
2026-04-25 12:31 28.50640 -80.55770 17343 ft 396 kts 81°
2026-04-25 12:31 28.50984 -80.52647 17730 ft 400 kts 81°
2026-04-25 12:31 28.51331 -80.49491 18079 ft 404 kts 81°
2026-04-25 12:31 28.51679 -80.46313 18462 ft 406 kts 81°
2026-04-25 12:32 28.52024 -80.43155 18837 ft 408 kts 81°
2026-04-25 12:32 28.52374 -80.39947 19207 ft 410 kts 81°
2026-04-25 12:32 28.52725 -80.36720 19555 ft 412 kts 81°
2026-04-25 12:32 28.53076 -80.33485 19910 ft 414 kts 81°
2026-04-25 12:33 28.53514 -80.30246 20248 ft 414 kts 75°
2026-04-25 12:33 28.54333 -80.27106 20599 ft 414 kts 66°
2026-04-25 12:33 28.55470 -80.24102 20934 ft 415 kts 63°
2026-04-25 12:33 28.56633 -80.21087 21283 ft 417 kts 64°
2026-04-25 12:34 28.57784 -80.18053 21628 ft 419 kts 64°
2026-04-25 12:34 28.58937 -80.14999 22020 ft 420 kts 64°
2026-04-25 12:34 28.60090 -80.11944 22398 ft 421 kts 64°
2026-04-25 12:34 28.60859 -80.09907 22652 ft 421 kts 64°
2026-04-25 12:35 28.62397 -80.05837 23082 ft 424 kts 64°
2026-04-25 12:35 28.63568 -80.02736 23417 ft 426 kts 64°
2026-04-25 12:35 28.64740 -79.99632 23724 ft 428 kts 64°
2026-04-25 12:35 28.65913 -79.96522 24017 ft 429 kts 64°
2026-04-25 12:36 28.67094 -79.93388 24314 ft 430 kts 64°
2026-04-25 12:36 28.68274 -79.90255 24603 ft 431 kts 65°
2026-04-25 12:36 28.69459 -79.87106 24898 ft 433 kts 65°
2026-04-25 12:36 28.70649 -79.83939 25187 ft 434 kts 65°
2026-04-25 12:37 28.71841 -79.80766 25495 ft 436 kts 65°
2026-04-25 12:37 28.73017 -79.77633 25778 ft 438 kts 65°
2026-04-25 12:37 28.74233 -79.74390 26100 ft 439 kts 65°
2026-04-25 12:37 28.75436 -79.71179 26440 ft 441 kts 65°
2026-04-25 12:38 28.76640 -79.67962 26775 ft 443 kts 65°
2026-04-25 12:38 28.77835 -79.64767 27099 ft 444 kts 65°
2026-04-25 12:38 28.79048 -79.61520 27443 ft 446 kts 65°
2026-04-25 12:38 28.80287 -79.58224 27784 ft 448 kts 63°
2026-04-25 12:39 28.81737 -79.55132 28116 ft 448 kts 56°
2026-04-25 12:39 28.83516 -79.52215 28456 ft 448 kts 52°
2026-04-25 12:39 28.85350 -79.49338 28856 ft 449 kts 52°
2026-04-25 12:39 28.87177 -79.46434 29192 ft 451 kts 52°
2026-04-25 12:40 28.89007 -79.43513 29540 ft 453 kts 53°
2026-04-25 12:40 28.90844 -79.40579 29843 ft 456 kts 53°
2026-04-25 12:40 28.92694 -79.37626 30165 ft 458 kts 53°
2026-04-25 12:40 28.94559 -79.34650 30462 ft 460 kts 53°
2026-04-25 12:41 28.96426 -79.31669 30752 ft 463 kts 53°
2026-04-25 12:41 28.98302 -79.28672 31023 ft 465 kts 53°
2026-04-25 12:41 29.00187 -79.25659 31299 ft 467 kts 53°
2026-04-25 12:41 29.02078 -79.22633 31575 ft 469 kts 53°
2026-04-25 12:42 29.03957 -79.19624 31844 ft 471 kts 53°
2026-04-25 12:42 29.04603 -79.18590 31945 ft 472 kts 53°
2026-04-25 12:42 29.07788 -79.13485 32382 ft 476 kts 53°
2026-04-25 12:42 29.09718 -79.10388 32662 ft 478 kts 53°
2026-04-25 12:43 29.11644 -79.07294 32995 ft 479 kts 53°
2026-04-25 12:43 29.17565 -78.97774 32987 ft 499 kts 53°
2026-04-25 12:44 29.21587 -78.91289 32987 ft 499 kts 53°
2026-04-25 12:45 29.27613 -78.81557 32988 ft 499 kts 53°
2026-04-25 12:45 29.33616 -78.71878 32984 ft 498 kts 50°
2026-04-25 12:46 29.35975 -78.68996 32992 ft 495 kts 39°
2026-04-25 12:46 29.38758 -78.66677 32979 ft 493 kts 28°
2026-04-25 12:46 29.45079 -78.63744 32978 ft 491 kts 17°
2026-04-25 12:47 29.51557 -78.61233 32985 ft 491 kts 17°
2026-04-25 12:47 29.58040 -78.58703 32989 ft 492 kts 17°
2026-04-25 12:48 29.64528 -78.56176 32991 ft 492 kts 17°
2026-04-25 12:48 29.71022 -78.53647 32993 ft 493 kts 17°
2026-04-25 12:49 29.76419 -78.51543 32994 ft 493 kts 17°
2026-04-25 12:49 29.84013 -78.48577 32993 ft 493 kts 17°
2026-04-25 12:50 29.90470 -78.46052 32996 ft 493 kts 17°
2026-04-25 12:50 29.95906 -78.43923 32991 ft 493 kts 17°
2026-04-25 12:51 30.03448 -78.40966 32988 ft 492 kts 17°
2026-04-25 12:51 30.08844 -78.38847 32985 ft 492 kts 17°
2026-04-25 12:52 30.15331 -78.36297 32983 ft 492 kts 17°
2026-04-25 12:52 30.21816 -78.33745 32980 ft 492 kts 17°
2026-04-25 12:53 30.28304 -78.31187 32982 ft 492 kts 17°
2026-04-25 12:53 30.34787 -78.28627 32982 ft 492 kts 17°
2026-04-25 12:54 30.41269 -78.26064 32983 ft 492 kts 17°
2026-04-25 12:54 30.47717 -78.23512 32981 ft 493 kts 17°
2026-04-25 12:55 30.53159 -78.21355 32983 ft 493 kts 18°
2026-04-25 12:55 30.60700 -78.18363 32983 ft 493 kts 18°
2026-04-25 12:56 30.67207 -78.15776 32981 ft 493 kts 18°
2026-04-25 12:56 30.73713 -78.13185 32987 ft 494 kts 18°
2026-04-25 12:57 30.80205 -78.10597 32987 ft 494 kts 18°
2026-04-25 12:57 30.86688 -78.08009 32983 ft 494 kts 18°
2026-04-25 12:58 30.93189 -78.05410 32985 ft 493 kts 18°
2026-04-25 12:58 30.99654 -78.02822 32980 ft 493 kts 18°
2026-04-25 12:59 31.06137 -78.00197 32970 ft 494 kts 20°
2026-04-25 12:59 31.12262 -77.96566 32971 ft 495 kts 31°
2026-04-25 13:00 31.17172 -77.92989 32966 ft 496 kts 30°
2026-04-25 13:00 31.24016 -77.88078 32992 ft 496 kts 31°
2026-04-25 13:01 31.29898 -77.83834 32988 ft 497 kts 31°
2026-04-25 13:01 31.35747 -77.79600 32989 ft 497 kts 31°
2026-04-25 13:02 31.41634 -77.75333 32992 ft 497 kts 31°
2026-04-25 13:02 31.47516 -77.71063 32989 ft 497 kts 31°
2026-04-25 13:03 31.53384 -77.66796 32996 ft 496 kts 31°
2026-04-25 13:03 31.59245 -77.62528 32971 ft 495 kts 31°
2026-04-25 13:04 31.65090 -77.58266 32971 ft 494 kts 31°
2026-04-25 13:04 31.70926 -77.54003 32961 ft 494 kts 31°
2026-04-25 13:05 31.76735 -77.49754 32975 ft 494 kts 31°
2026-04-25 13:05 31.82566 -77.45482 32971 ft 494 kts 31°
2026-04-25 13:06 31.88405 -77.41198 32974 ft 494 kts 31°
2026-04-25 13:06 31.94242 -77.36909 32978 ft 494 kts 31°
2026-04-25 13:07 32.00082 -77.32612 32992 ft 494 kts 32°
2026-04-25 13:07 32.05919 -77.28309 32994 ft 494 kts 31°
2026-04-25 13:08 32.11748 -77.24006 32967 ft 494 kts 32°
2026-04-25 13:08 32.17540 -77.19725 32966 ft 494 kts 32°
2026-04-25 13:09 32.23373 -77.15412 32958 ft 494 kts 31°
2026-04-25 13:09 32.29245 -77.11159 32971 ft 494 kts 31°
2026-04-25 13:10 32.35111 -77.06921 32969 ft 494 kts 31°
2026-04-25 13:10 32.40938 -77.02695 32973 ft 494 kts 31°
2026-04-25 13:11 32.46802 -76.98430 32968 ft 494 kts 31°
2026-04-25 13:11 32.52660 -76.94161 32976 ft 494 kts 31°
2026-04-25 13:12 32.58521 -76.89884 32976 ft 494 kts 31°
2026-04-25 13:12 32.63385 -76.86330 32976 ft 493 kts 31°
2026-04-25 13:13 32.70195 -76.81345 32958 ft 494 kts 31°
2026-04-25 13:13 32.76051 -76.77051 32957 ft 495 kts 31°
2026-04-25 13:14 32.81916 -76.72745 32966 ft 495 kts 31°
2026-04-25 13:14 32.87743 -76.68459 32962 ft 495 kts 31°
2026-04-25 13:15 32.93602 -76.64143 32970 ft 496 kts 31°
2026-04-25 13:15 32.99471 -76.59813 32977 ft 495 kts 32°
2026-04-25 13:16 33.05335 -76.55480 32974 ft 495 kts 32°
2026-04-25 13:16 33.11186 -76.51149 32971 ft 495 kts 32°
2026-04-25 13:17 33.17031 -76.46816 32958 ft 495 kts 32°
2026-04-25 13:17 33.22838 -76.42505 32965 ft 494 kts 32°
2026-04-25 13:18 33.28684 -76.38157 32956 ft 495 kts 32°
2026-04-25 13:18 33.34524 -76.33806 32965 ft 494 kts 32°
2026-04-25 13:19 33.40367 -76.29447 32959 ft 494 kts 32°
2026-04-25 13:19 33.45224 -76.25819 32969 ft 494 kts 32°
2026-04-25 13:20 33.52037 -76.20719 32969 ft 493 kts 32°
2026-04-25 13:20 33.57856 -76.16357 32960 ft 493 kts 32°
2026-04-25 13:21 33.63667 -76.11994 32949 ft 492 kts 32°
2026-04-25 13:21 33.69475 -76.07626 32951 ft 492 kts 32°
2026-04-25 13:22 33.75239 -76.03285 32961 ft 491 kts 32°
2026-04-25 13:23 33.83927 -75.96727 32950 ft 491 kts 32°
2026-04-25 13:23 33.89706 -75.92357 32950 ft 490 kts 31°
2026-04-25 13:24 33.95481 -75.87981 32956 ft 489 kts 31°
2026-04-25 13:24 34.01230 -75.83618 32965 ft 487 kts 31°
2026-04-25 13:25 34.06008 -75.79987 32948 ft 487 kts 32°
2026-04-25 13:25 34.12683 -75.74906 32945 ft 486 kts 31°
2026-04-25 13:26 34.18418 -75.70533 32919 ft 487 kts 31°
2026-04-25 13:26 34.24145 -75.66160 32937 ft 487 kts 31°
2026-04-25 13:27 34.29882 -75.61770 32922 ft 488 kts 31°
2026-04-25 13:27 34.35612 -75.57380 32939 ft 488 kts 31°
2026-04-25 13:28 34.41356 -75.52971 32936 ft 489 kts 31°
2026-04-25 13:28 34.47096 -75.48557 32940 ft 489 kts 31°
2026-04-25 13:29 34.52816 -75.44153 32936 ft 490 kts 31°
2026-04-25 13:29 34.58567 -75.39719 32928 ft 490 kts 31°
2026-04-25 13:30 34.67208 -75.33040 32935 ft 490 kts 30°
2026-04-25 13:31 34.75843 -75.26348 32935 ft 490 kts 30°
2026-04-25 13:31 34.81553 -75.21916 32924 ft 490 kts 31°
2026-04-25 13:32 34.87311 -75.17436 32929 ft 490 kts 31°
2026-04-25 13:32 34.93054 -75.12961 32926 ft 490 kts 30°
2026-04-25 13:33 34.98802 -75.08477 32924 ft 490 kts 31°
2026-04-25 13:33 35.04538 -75.03991 32916 ft 490 kts 30°
2026-04-25 13:34 35.10280 -74.99495 32916 ft 490 kts 30°
2026-04-25 13:34 35.15996 -74.95012 32919 ft 490 kts 31°
2026-04-25 13:35 35.21750 -74.90492 32919 ft 491 kts 30°
2026-04-25 13:35 35.27499 -74.85971 32929 ft 491 kts 30°
2026-04-25 13:36 35.33100 -74.81245 32921 ft 493 kts 35°
2026-04-25 13:36 35.38579 -74.76187 32922 ft 493 kts 34°
2026-04-25 13:37 35.44083 -74.71153 32923 ft 493 kts 34°
2026-04-25 13:37 35.49576 -74.66103 32927 ft 493 kts 34°
2026-04-25 13:38 35.55070 -74.61033 32928 ft 493 kts 34°
2026-04-25 13:38 35.59622 -74.56825 32931 ft 493 kts 34°
2026-04-25 13:39 35.65101 -74.51752 32919 ft 492 kts 34°
2026-04-25 13:39 35.70577 -74.46672 32916 ft 492 kts 34°
2026-04-25 13:40 35.76000 -74.41633 32926 ft 492 kts 34°
2026-04-25 13:40 35.81471 -74.36540 32925 ft 492 kts 34°
2026-04-25 13:41 35.86923 -74.31456 32924 ft 491 kts 34°
2026-04-25 13:41 35.92381 -74.26357 32918 ft 491 kts 34°
2026-04-25 13:42 35.97825 -74.21263 32927 ft 491 kts 34°
2026-04-25 13:42 36.03271 -74.16157 32920 ft 491 kts 34°
2026-04-25 13:43 36.08672 -74.11085 32925 ft 491 kts 34°
2026-04-25 13:43 36.14113 -74.05966 32920 ft 491 kts 34°
2026-04-25 13:44 36.19550 -74.00841 32933 ft 491 kts 33°
2026-04-25 13:44 36.24985 -73.95710 32938 ft 491 kts 33°
2026-04-25 13:45 36.30420 -73.90569 32939 ft 490 kts 33°
2026-04-25 13:45 36.35805 -73.85466 32938 ft 490 kts 33°
2026-04-25 13:46 36.41223 -73.80322 32939 ft 490 kts 33°
2026-04-25 13:46 36.46643 -73.75169 32950 ft 490 kts 33°
2026-04-25 13:47 36.52057 -73.70010 32948 ft 490 kts 33°
2026-04-25 13:47 36.57475 -73.64839 32958 ft 490 kts 33°
2026-04-25 13:48 36.62843 -73.59706 32954 ft 490 kts 33°
2026-04-25 13:48 36.68250 -73.54527 32956 ft 490 kts 33°
2026-04-25 13:49 36.73663 -73.49332 32961 ft 490 kts 33°
2026-04-25 13:49 36.79066 -73.44137 32980 ft 490 kts 33°
2026-04-25 13:50 36.84444 -73.38958 32966 ft 491 kts 33°
2026-04-25 13:50 36.89857 -73.33735 32973 ft 491 kts 33°
2026-04-25 13:51 36.95264 -73.28507 32993 ft 491 kts 32°
2026-04-25 13:51 37.00674 -73.23267 32990 ft 492 kts 32°
2026-04-25 13:52 37.06081 -73.18021 32993 ft 492 kts 32°
2026-04-25 13:52 37.11483 -73.12770 32995 ft 492 kts 32°
2026-04-25 13:53 37.16890 -73.07504 33003 ft 492 kts 32°
2026-04-25 13:53 37.22299 -73.02226 33003 ft 492 kts 32°
2026-04-25 13:54 37.27663 -72.96983 33004 ft 492 kts 32°
2026-04-25 13:54 37.33065 -72.91692 33010 ft 491 kts 32°
2026-04-25 13:55 37.38468 -72.86390 33008 ft 491 kts 32°
2026-04-25 13:55 37.43857 -72.81092 33019 ft 492 kts 32°
2026-04-25 13:56 37.49243 -72.75788 33023 ft 491 kts 32°
2026-04-25 13:56 37.54594 -72.70508 33017 ft 491 kts 32°
2026-04-25 13:57 37.59978 -72.65185 33039 ft 491 kts 32°
2026-04-25 13:57 37.65359 -72.59857 33040 ft 492 kts 32°
2026-04-25 13:58 37.70739 -72.54517 33039 ft 491 kts 32°
2026-04-25 13:58 37.76106 -72.49181 33043 ft 491 kts 32°
2026-04-25 13:59 37.81444 -72.43865 33031 ft 491 kts 31°
2026-04-25 13:59 37.86771 -72.38439 33041 ft 494 kts 35°
2026-04-25 14:00 37.91544 -72.32047 33049 ft 501 kts 41°
2026-04-25 14:00 37.96200 -72.25468 33063 ft 501 kts 41°
2026-04-25 14:01 38.00830 -72.18939 33064 ft 501 kts 41°
2026-04-25 14:01 38.05476 -72.12351 33063 ft 501 kts 41°
2026-04-25 14:02 38.10111 -72.05757 33065 ft 500 kts 41°
2026-04-25 14:02 38.14748 -71.99147 33059 ft 500 kts 41°
2026-04-25 14:03 38.19378 -71.92532 33064 ft 501 kts 41°
2026-04-25 14:03 38.23983 -71.85941 33075 ft 501 kts 40°
2026-04-25 14:04 38.28614 -71.79297 33076 ft 501 kts 41°
2026-04-25 14:04 38.33241 -71.72646 33080 ft 501 kts 41°
2026-04-25 14:05 38.37858 -71.65996 33067 ft 502 kts 40°
2026-04-25 14:05 38.42487 -71.59315 33074 ft 502 kts 40°
2026-04-25 14:06 38.47104 -71.52635 33088 ft 502 kts 40°
2026-04-25 14:06 38.51695 -71.45980 33084 ft 502 kts 40°
2026-04-25 14:07 38.56312 -71.39273 33101 ft 502 kts 40°
2026-04-25 14:07 38.60919 -71.32566 33098 ft 502 kts 40°
2026-04-25 14:08 38.65525 -71.25848 33094 ft 502 kts 40°
2026-04-25 14:08 38.70127 -71.19121 33099 ft 502 kts 40°
2026-04-25 14:09 38.74724 -71.12385 33117 ft 502 kts 40°
2026-04-25 14:09 38.79326 -71.05628 33118 ft 502 kts 40°
2026-04-25 14:10 38.83133 -71.00029 33113 ft 502 kts 40°
2026-04-25 14:10 38.88466 -70.92167 33112 ft 502 kts 40°
2026-04-25 14:11 38.93050 -70.85394 33122 ft 502 kts 40°
2026-04-25 14:11 38.97623 -70.78623 33121 ft 501 kts 40°
2026-04-25 14:12 39.02190 -70.71844 33116 ft 501 kts 40°
2026-04-25 14:12 39.06752 -70.65059 33115 ft 500 kts 40°
2026-04-25 14:13 39.11277 -70.58316 33115 ft 500 kts 40°
2026-04-25 14:13 39.15821 -70.51529 33131 ft 500 kts 40°
2026-04-25 14:14 39.20367 -70.44725 33122 ft 500 kts 40°
2026-04-25 14:14 39.24904 -70.37919 33121 ft 499 kts 40°
2026-04-25 14:15 39.29427 -70.31120 33117 ft 499 kts 40°
2026-04-25 14:15 39.33908 -70.24370 33117 ft 498 kts 40°
2026-04-25 14:16 39.38419 -70.17559 33144 ft 498 kts 40°
2026-04-25 14:16 39.42912 -70.10758 33168 ft 496 kts 40°
2026-04-25 14:17 39.47320 -70.03876 33145 ft 501 kts 44°
2026-04-25 14:17 39.50944 -69.96036 33134 ft 515 kts 55°
2026-04-25 14:18 39.53603 -69.87311 33123 ft 522 kts 60°
2026-04-25 14:18 39.56133 -69.78514 33176 ft 520 kts 59°
2026-04-25 14:19 39.58651 -69.69727 33150 ft 518 kts 60°
2026-04-25 14:19 39.61123 -69.61024 33134 ft 517 kts 60°
2026-04-25 14:20 39.63602 -69.52260 33143 ft 516 kts 59°
2026-04-25 14:20 39.66066 -69.43521 33123 ft 515 kts 59°
2026-04-25 14:21 39.68517 -69.34795 33135 ft 514 kts 59°
2026-04-25 14:21 39.70961 -69.26071 33111 ft 513 kts 59°
2026-04-25 14:22 39.73392 -69.17356 33118 ft 513 kts 59°
2026-04-25 14:22 39.75800 -69.08701 33094 ft 513 kts 59°
2026-04-25 14:23 39.78219 -68.99974 33092 ft 513 kts 59°
2026-04-25 14:23 39.80637 -68.91221 33089 ft 513 kts 59°
2026-04-25 14:24 39.83047 -68.82467 33102 ft 515 kts 59°
2026-04-25 14:24 39.85459 -68.73675 33122 ft 516 kts 59°
2026-04-25 14:25 39.87459 -68.66360 33118 ft 516 kts 59°
2026-04-25 14:25 39.90252 -68.56108 33114 ft 516 kts 59°
2026-04-25 14:26 39.92261 -68.48709 33121 ft 516 kts 59°
2026-04-25 14:26 39.94635 -68.39936 33141 ft 516 kts 58°
2026-04-25 14:27 39.97011 -68.31125 33125 ft 514 kts 58°
2026-04-25 14:27 39.99324 -68.22298 33114 ft 519 kts 62°
2026-04-25 14:28 40.00739 -68.12912 33109 ft 536 kts 71°
2026-04-25 14:28 40.01691 -68.03267 33100 ft 534 kts 70°
2026-04-25 14:29 40.02670 -67.93670 33093 ft 533 kts 70°
2026-04-25 14:29 40.03631 -67.84075 33093 ft 533 kts 70°
2026-04-25 14:30 40.04575 -67.74537 33088 ft 533 kts 70°
2026-04-25 14:30 40.05986 -67.60121 33096 ft 534 kts 70°
2026-04-25 14:31 40.06918 -67.50489 33093 ft 535 kts 70°
2026-04-25 14:31 40.07844 -67.40828 33091 ft 536 kts 70°
2026-04-25 14:32 40.08762 -67.31165 33095 ft 536 kts 70°
2026-04-25 14:32 40.09667 -67.21550 33136 ft 536 kts 71°
2026-04-25 14:33 40.10574 -67.11847 33092 ft 538 kts 71°
2026-04-25 14:33 40.11470 -67.02142 33083 ft 537 kts 71°
2026-04-25 14:34 40.12801 -66.92669 33083 ft 527 kts 66°
2026-04-25 14:34 40.14276 -66.83322 33070 ft 528 kts 66°
2026-04-25 14:35 40.15752 -66.73910 33065 ft 528 kts 66°
2026-04-25 14:35 40.17220 -66.64515 33063 ft 528 kts 67°
2026-04-25 14:36 40.18683 -66.55094 33100 ft 529 kts 67°
2026-04-25 14:36 40.20135 -66.45652 33058 ft 529 kts 67°
2026-04-25 14:37 40.21571 -66.36256 33052 ft 529 kts 68°
2026-04-25 14:37 40.23004 -66.26818 33055 ft 529 kts 68°
2026-04-25 14:38 40.24435 -66.17353 33052 ft 529 kts 68°
2026-04-25 14:38 40.25857 -66.07883 33050 ft 529 kts 68°
2026-04-25 14:39 40.27270 -65.98416 33044 ft 529 kts 68°
2026-04-25 14:39 40.28678 -65.88940 33043 ft 530 kts 69°
2026-04-25 14:40 40.30075 -65.79462 33041 ft 530 kts 69°
2026-04-25 14:40 40.31457 -65.70042 33031 ft 530 kts 69°
2026-04-25 14:41 40.32841 -65.60550 33060 ft 530 kts 70°
2026-04-25 14:41 40.34218 -65.51051 33060 ft 530 kts 70°
2026-04-25 14:42 40.35362 -65.43107 33039 ft 529 kts 71°
2026-04-25 14:42 40.36939 -65.32094 33024 ft 528 kts 71°
2026-04-25 14:43 40.38286 -65.22631 33016 ft 527 kts 71°
2026-04-25 14:43 40.39623 -65.13174 33008 ft 527 kts 71°
2026-04-25 14:44 40.40951 -65.03729 33001 ft 526 kts 71°
2026-04-25 14:44 40.42271 -64.94293 33012 ft 526 kts 72°
2026-04-25 14:45 40.43582 -64.84840 33004 ft 525 kts 72°
2026-04-25 14:45 40.44883 -64.75410 33002 ft 525 kts 72°
2026-04-25 14:46 40.46167 -64.66040 33001 ft 524 kts 72°
2026-04-25 14:46 40.47454 -64.56599 32992 ft 524 kts 72°
2026-04-25 14:47 40.48513 -64.48774 32993 ft 524 kts 72°
2026-04-25 14:47 40.50000 -64.37733 33008 ft 524 kts 73°
2026-04-25 14:48 40.51252 -64.28358 33007 ft 523 kts 73°
2026-04-25 14:48 40.52502 -64.18945 32993 ft 522 kts 73°
2026-04-25 14:49 40.53740 -64.09554 32977 ft 521 kts 73°
2026-04-25 14:49 40.54970 -64.00177 32988 ft 520 kts 74°
2026-04-25 14:50 40.56189 -63.90811 32969 ft 519 kts 74°
2026-04-25 14:50 40.57391 -63.81518 32986 ft 517 kts 74°
2026-04-25 14:51 40.58587 -63.72212 32974 ft 516 kts 74°
2026-04-25 14:51 40.59777 -63.62890 32955 ft 515 kts 74°
2026-04-25 14:52 40.60956 -63.53597 32939 ft 514 kts 74°
2026-04-25 14:52 40.61928 -63.45887 32930 ft 513 kts 75°
2026-04-25 14:53 40.63277 -63.35112 32918 ft 513 kts 75°
2026-04-25 14:53 40.64430 -63.25838 32921 ft 512 kts 75°
2026-04-25 14:54 40.65573 -63.16582 32914 ft 512 kts 75°
2026-04-25 14:54 40.66711 -63.07301 32907 ft 513 kts 75°
2026-04-25 14:55 40.67836 -62.98064 32905 ft 513 kts 75°
2026-04-25 14:55 40.68960 -62.88765 32904 ft 514 kts 75°
2026-04-25 14:56 40.70079 -62.79451 32919 ft 515 kts 76°
2026-04-25 14:56 40.71189 -62.70132 32910 ft 514 kts 76°
2026-04-25 14:57 40.72293 -62.60810 32903 ft 514 kts 76°
2026-04-25 14:57 40.73388 -62.51491 32919 ft 514 kts 76°
2026-04-25 14:58 40.74476 -62.42168 32893 ft 513 kts 76°
2026-04-25 14:58 40.75553 -62.32872 32883 ft 513 kts 76°
2026-04-25 14:59 40.76618 -62.23620 32890 ft 512 kts 77°
2026-04-25 14:59 40.77678 -62.14327 32877 ft 512 kts 77°
2026-04-25 15:00 40.78731 -62.05041 32874 ft 511 kts 77°
2026-04-25 15:00 40.79775 -61.95762 32865 ft 511 kts 77°
2026-04-25 15:01 40.80811 -61.86492 32868 ft 510 kts 77°
2026-04-25 15:01 40.81839 -61.77218 32883 ft 510 kts 78°
2026-04-25 15:02 40.82851 -61.68017 32866 ft 509 kts 78°
2026-04-25 15:02 40.83861 -61.58765 32865 ft 509 kts 78°
2026-04-25 15:03 40.84865 -61.49503 32859 ft 509 kts 78°
2026-04-25 15:03 40.85860 -61.40249 32857 ft 508 kts 78°
2026-04-25 15:04 40.86846 -61.31004 32856 ft 509 kts 78°
2026-04-25 15:04 40.87827 -61.21742 32855 ft 508 kts 78°
2026-04-25 15:05 40.88791 -61.12557 32852 ft 507 kts 78°
2026-04-25 15:06 40.90231 -60.98714 32835 ft 506 kts 78°
2026-04-25 15:06 40.91180 -60.89494 32829 ft 506 kts 78°
2026-04-25 15:07 40.92123 -60.80263 32825 ft 506 kts 78°
2026-04-25 15:07 40.93059 -60.71029 32813 ft 507 kts 79°
2026-04-25 15:08 40.93988 -60.61773 32817 ft 507 kts 79°
2026-04-25 15:08 40.94911 -60.52519 32821 ft 508 kts 79°
2026-04-25 15:09 40.95823 -60.43295 32804 ft 509 kts 79°
2026-04-25 15:09 40.97190 -60.29323 32813 ft 511 kts 79°
2026-04-25 15:10 40.98096 -60.20001 32838 ft 510 kts 79°
2026-04-25 15:11 40.99439 -60.06097 32805 ft 510 kts 79°
2026-04-25 15:11 41.00357 -59.96798 32799 ft 509 kts 77°
2026-04-25 15:12 41.02390 -59.83011 32800 ft 507 kts 75°
2026-04-25 15:12 41.03302 -59.76876 32827 ft 507 kts 76°
2026-04-25 15:13 41.05711 -59.60121 32786 ft 507 kts 76°
2026-04-25 15:14 41.06804 -59.52432 32779 ft 507 kts 76°
2026-04-25 15:14 41.08102 -59.43242 32785 ft 507 kts 76°
2026-04-25 15:15 41.09174 -59.35586 32788 ft 508 kts 77°
2026-04-25 15:15 41.10661 -59.24881 32788 ft 507 kts 77°
2026-04-25 15:16 41.11932 -59.15677 32758 ft 508 kts 77°
2026-04-25 15:16 41.13831 -59.01811 32767 ft 509 kts 77°
2026-04-25 15:17 41.15704 -58.87996 32772 ft 509 kts 77°
2026-04-25 15:18 41.16948 -58.78744 32765 ft 509 kts 77°
2026-04-25 15:18 41.18808 -58.64837 32744 ft 510 kts 77°
2026-04-25 15:19 41.19832 -58.57102 32752 ft 511 kts 77°
2026-04-25 15:19 41.21262 -58.46234 32762 ft 511 kts 77°
2026-04-25 15:20 41.22470 -58.36989 32750 ft 511 kts 77°
2026-04-25 15:20 41.23678 -58.27702 32748 ft 510 kts 78°
2026-04-25 15:21 41.24878 -58.18411 32711 ft 511 kts 77°
2026-04-25 15:21 41.26074 -58.09089 32718 ft 512 kts 78°
2026-04-25 15:22 41.27264 -57.99746 32741 ft 513 kts 78°
2026-04-25 15:22 41.28440 -57.90443 32741 ft 513 kts 78°
2026-04-25 15:23 41.29620 -57.81063 32743 ft 514 kts 78°
2026-04-25 15:23 41.30790 -57.71679 32747 ft 513 kts 77°
2026-04-25 15:24 41.31953 -57.62302 32738 ft 513 kts 78°
2026-04-25 15:24 41.32912 -57.54507 32746 ft 513 kts 78°
2026-04-25 15:25 41.34243 -57.43616 32718 ft 512 kts 77°
2026-04-25 15:25 41.35377 -57.34278 32708 ft 511 kts 77°
2026-04-25 15:26 41.36504 -57.24933 32668 ft 512 kts 78°
2026-04-25 15:26 41.37626 -57.15554 32673 ft 513 kts 78°
2026-04-25 15:27 41.38745 -57.06152 32676 ft 515 kts 79°
2026-04-25 15:28 41.40403 -56.92069 32694 ft 515 kts 79°
2026-04-25 15:28 41.41505 -56.82620 32664 ft 516 kts 79°
2026-04-25 15:29 41.42605 -56.73126 32658 ft 519 kts 79°
2026-04-25 15:29 41.43700 -56.63597 32671 ft 521 kts 79°
2026-04-25 15:30 41.44783 -56.54110 32668 ft 522 kts 79°
2026-04-25 15:30 41.45868 -56.44531 32662 ft 523 kts 79°
2026-04-25 15:31 41.46946 -56.34944 32649 ft 524 kts 79°
2026-04-25 15:31 41.48020 -56.25320 32645 ft 525 kts 79°
2026-04-25 15:32 41.49087 -56.15671 32653 ft 526 kts 80°
2026-04-25 15:32 41.50140 -56.06081 32657 ft 526 kts 80°
2026-04-25 15:33 41.51716 -55.91575 32630 ft 527 kts 79°
2026-04-25 15:33 41.52761 -55.81864 32615 ft 529 kts 81°
2026-04-25 15:34 41.53792 -55.72198 32632 ft 530 kts 80°
2026-04-25 15:34 41.54656 -55.64039 32626 ft 531 kts 81°
2026-04-25 15:35 41.56356 -55.47827 32639 ft 530 kts 80°
2026-04-25 15:36 41.57871 -55.33183 32615 ft 531 kts 81°
2026-04-25 15:36 41.58873 -55.23387 32633 ft 532 kts 81°
2026-04-25 15:37 41.59870 -55.13557 32625 ft 533 kts 81°
2026-04-25 15:37 41.60855 -55.03765 32627 ft 535 kts 81°
2026-04-25 15:38 41.61838 -54.93909 32618 ft 535 kts 81°
2026-04-25 15:38 41.62814 -54.84029 32604 ft 537 kts 82°
2026-04-25 15:39 41.63785 -54.74113 32609 ft 538 kts 82°
2026-04-25 15:39 41.64747 -54.64194 32602 ft 538 kts 82°
2026-04-25 15:40 41.65379 -54.57631 32613 ft 538 kts 82°
2026-04-25 15:40 41.66646 -54.44354 32579 ft 538 kts 82°
2026-04-25 15:41 41.67578 -54.34472 32584 ft 539 kts 82°
2026-04-25 15:41 41.68510 -54.24503 32591 ft 539 kts 82°
2026-04-25 15:42 41.69433 -54.14533 32603 ft 540 kts 82°
2026-04-25 15:42 41.70348 -54.04554 32587 ft 540 kts 82°
2026-04-25 15:43 41.71257 -53.94550 32567 ft 541 kts 83°
2026-04-25 15:43 41.72152 -53.84583 32564 ft 543 kts 83°
2026-04-25 15:44 41.73046 -53.74538 32579 ft 544 kts 83°
2026-04-25 15:44 41.73933 -53.64462 32592 ft 545 kts 83°
2026-04-25 15:45 41.74813 -53.54372 32590 ft 546 kts 83°
2026-04-25 15:45 41.75392 -53.47675 32600 ft 546 kts 83°
2026-04-25 15:46 41.76547 -53.34181 32570 ft 548 kts 84°
2026-04-25 15:46 41.77405 -53.24030 32575 ft 548 kts 84°
2026-04-25 15:47 41.78255 -53.13870 32576 ft 549 kts 84°
2026-04-25 15:47 41.79098 -53.03676 32577 ft 549 kts 84°
2026-04-25 15:48 41.79930 -52.93506 32574 ft 549 kts 84°
2026-04-25 15:48 41.80751 -52.83357 32572 ft 549 kts 84°
2026-04-25 15:49 41.81565 -52.73184 32567 ft 548 kts 84°
2026-04-25 15:49 41.82369 -52.63015 32564 ft 548 kts 84°
2026-04-25 15:50 41.83160 -52.52907 32560 ft 548 kts 84°
2026-04-25 15:50 41.83947 -52.42723 32533 ft 549 kts 85°
2026-04-25 15:51 41.84468 -52.35909 32539 ft 550 kts 85°
2026-04-25 15:51 41.85498 -52.22299 32548 ft 551 kts 85°
2026-04-25 15:52 41.86263 -52.12051 32559 ft 553 kts 85°
2026-04-25 15:52 41.87019 -52.01790 32572 ft 553 kts 85°
2026-04-25 15:53 41.87769 -51.91476 32545 ft 555 kts 85°
2026-04-25 15:53 41.88507 -51.81206 32553 ft 557 kts 86°
2026-04-25 15:54 41.89242 -51.70847 32558 ft 558 kts 86°
2026-04-25 15:54 41.89968 -51.60483 32564 ft 558 kts 86°
2026-04-25 15:55 41.90686 -51.50100 32534 ft 559 kts 86°
2026-04-25 15:55 41.91396 -51.39693 32542 ft 561 kts 86°
2026-04-25 15:56 41.92098 -51.29251 32552 ft 562 kts 86°
2026-04-25 15:56 41.92794 -51.18773 32554 ft 563 kts 86°
2026-04-25 15:57 41.93476 -51.08353 32564 ft 563 kts 86°
2026-04-25 15:57 41.94153 -50.97863 32535 ft 563 kts 87°
2026-04-25 15:58 41.94820 -50.87362 32539 ft 565 kts 87°
2026-04-25 15:58 41.95479 -50.76850 32554 ft 565 kts 87°
2026-04-25 15:59 41.96130 -50.66305 32556 ft 566 kts 87°
2026-04-25 15:59 41.96772 -50.55762 32566 ft 566 kts 88°
2026-04-25 16:00 41.97191 -50.48781 32551 ft 566 kts 88°
2026-04-25 16:00 41.98031 -50.34662 32542 ft 567 kts 88°
2026-04-25 16:01 41.98649 -50.24162 32552 ft 567 kts 88°
2026-04-25 16:01 41.99265 -50.13569 32563 ft 567 kts 88°
2026-04-25 16:02 41.99869 -50.02996 32534 ft 567 kts 88°
2026-04-25 16:02 42.00544 -49.94223 32549 ft 569 kts 82°
2026-04-25 16:03 42.02183 -49.83794 32549 ft 571 kts 79°
2026-04-25 16:03 42.03809 -49.73314 32562 ft 571 kts 81°
2026-04-25 16:04 42.05332 -49.62838 32561 ft 571 kts 81°
2026-04-25 16:04 42.06818 -49.52409 32560 ft 570 kts 81°
2026-04-25 16:05 42.08300 -49.41931 32528 ft 570 kts 82°
2026-04-25 16:06 42.10501 -49.26162 32549 ft 571 kts 82°
2026-04-25 16:06 42.11956 -49.15636 32558 ft 572 kts 82°
2026-04-25 16:07 42.13407 -49.05070 32563 ft 573 kts 82°
2026-04-25 16:07 42.14846 -48.94515 32577 ft 573 kts 82°
2026-04-25 16:08 42.16269 -48.84000 32537 ft 573 kts 83°
2026-04-25 16:08 42.17689 -48.73424 32550 ft 574 kts 83°
2026-04-25 16:09 42.19103 -48.62819 32560 ft 574 kts 83°
2026-04-25 16:09 42.20510 -48.52193 32579 ft 575 kts 83°
2026-04-25 16:10 42.21896 -48.41646 32582 ft 574 kts 83°
2026-04-25 16:10 42.23284 -48.31006 32574 ft 574 kts 83°
2026-04-25 16:11 42.24658 -48.20395 32507 ft 574 kts 84°
2026-04-25 16:11 42.26024 -48.09762 32548 ft 576 kts 84°
2026-04-25 16:12 42.27383 -47.99097 32558 ft 577 kts 84°
2026-04-25 16:12 42.28728 -47.88463 32571 ft 578 kts 84°
2026-04-25 16:13 42.30075 -47.77740 32581 ft 579 kts 84°
2026-04-25 16:13 42.31412 -47.67008 32590 ft 579 kts 84°
2026-04-25 16:14 42.32737 -47.56282 32572 ft 578 kts 84°
2026-04-25 16:14 42.34050 -47.45570 32575 ft 577 kts 85°
2026-04-25 16:15 42.35351 -47.34875 32577 ft 576 kts 85°
2026-04-25 16:15 42.36632 -47.24257 32573 ft 575 kts 85°
2026-04-25 16:16 42.37909 -47.13580 32568 ft 575 kts 85°
2026-04-25 16:16 42.39177 -47.02893 32526 ft 575 kts 85°
2026-04-25 16:17 42.40436 -46.92197 32547 ft 576 kts 85°
2026-04-25 16:17 42.41689 -46.81459 32564 ft 578 kts 85°
2026-04-25 16:18 42.42928 -46.70746 32582 ft 580 kts 85°
2026-04-25 16:18 42.44169 -46.59935 32593 ft 581 kts 86°
2026-04-25 16:19 42.45402 -46.49108 32611 ft 581 kts 86°
2026-04-25 16:19 42.46622 -46.38286 32576 ft 581 kts 86°
2026-04-25 16:20 42.48436 -46.22022 32587 ft 582 kts 86°
2026-04-25 16:21 42.50227 -46.05760 32600 ft 582 kts 86°
2026-04-25 16:21 42.51407 -45.94918 32605 ft 581 kts 86°
2026-04-25 16:22 42.52575 -45.84090 32599 ft 580 kts 86°
2026-04-25 16:22 42.53725 -45.73334 32590 ft 579 kts 86°
2026-04-25 16:23 42.54875 -45.62471 32599 ft 579 kts 87°
2026-04-25 16:23 42.56005 -45.51708 32602 ft 578 kts 87°
2026-04-25 16:24 42.57128 -45.40899 32597 ft 578 kts 87°
2026-04-25 16:24 42.58239 -45.30106 32598 ft 578 kts 87°
2026-04-25 16:25 42.59343 -45.19292 32601 ft 577 kts 87°
2026-04-25 16:25 42.60431 -45.08516 32595 ft 576 kts 87°
2026-04-25 16:26 42.61509 -44.97743 32605 ft 576 kts 87°
2026-04-25 16:26 42.62578 -44.86950 32610 ft 576 kts 88°
2026-04-25 16:27 42.63637 -44.76156 32618 ft 576 kts 88°
2026-04-25 16:27 42.64678 -44.65444 32613 ft 576 kts 88°
2026-04-25 16:28 42.65715 -44.54663 32548 ft 575 kts 88°
2026-04-25 16:28 42.66739 -44.43912 32603 ft 574 kts 88°
2026-04-25 16:29 42.67753 -44.33150 32615 ft 574 kts 88°
2026-04-25 16:29 42.68758 -44.22373 32616 ft 574 kts 88°
2026-04-25 16:30 42.69752 -44.11605 32614 ft 574 kts 88°
2026-04-25 16:30 42.70736 -44.00832 32624 ft 574 kts 88°
2026-04-25 16:31 42.71710 -43.90056 32607 ft 573 kts 88°
2026-04-25 16:31 42.72671 -43.79303 32628 ft 573 kts 88°
2026-04-25 16:32 42.73618 -43.68603 32621 ft 573 kts 89°
2026-04-25 16:32 42.74559 -43.57845 32632 ft 572 kts 89°
2026-04-25 16:33 42.75489 -43.47091 32628 ft 572 kts 89°
2026-04-25 16:33 42.76410 -43.36330 32628 ft 572 kts 89°
2026-04-25 16:34 42.77321 -43.25568 32619 ft 571 kts 89°
2026-04-25 16:34 42.78214 -43.14885 32623 ft 571 kts 89°
2026-04-25 16:35 42.79102 -43.04141 32624 ft 571 kts 89°
2026-04-25 16:35 42.79982 -42.93379 32629 ft 572 kts 89°
2026-04-25 16:36 42.80853 -42.82597 32630 ft 572 kts 89°
2026-04-25 16:36 42.81708 -42.71895 32657 ft 571 kts 89°
2026-04-25 16:37 42.82555 -42.61150 32637 ft 568 kts 89°
2026-04-25 16:37 42.83390 -42.50441 32629 ft 568 kts 89°
2026-04-25 16:38 42.84212 -42.39743 32625 ft 567 kts 89°
2026-04-25 16:38 42.85025 -42.29051 32628 ft 566 kts 89°
2026-04-25 16:39 42.85826 -42.18380 32626 ft 566 kts 90°
2026-04-25 16:39 42.86612 -42.07771 32627 ft 566 kts 90°
2026-04-25 16:40 42.87394 -41.97089 32614 ft 566 kts 90°
2026-04-25 16:40 42.88165 -41.86403 32637 ft 566 kts 90°
2026-04-25 16:41 42.88927 -41.75704 32638 ft 566 kts 90°
2026-04-25 16:41 42.90048 -41.59721 32645 ft 567 kts 90°
2026-04-25 16:42 42.90786 -41.49006 32658 ft 566 kts 90°
2026-04-25 16:42 42.91513 -41.38311 32657 ft 565 kts 90°
2026-04-25 16:43 42.92228 -41.27637 32658 ft 565 kts 90°
2026-04-25 16:43 42.92933 -41.16972 32649 ft 564 kts 90°
2026-04-25 16:44 42.93622 -41.06384 32654 ft 563 kts 90°
2026-04-25 16:44 42.94306 -40.95727 32657 ft 563 kts 90°
2026-04-25 16:45 42.94979 -40.85080 32658 ft 563 kts 91°
2026-04-25 16:45 42.95643 -40.74427 32629 ft 563 kts 91°
2026-04-25 16:46 42.96296 -40.63761 32650 ft 564 kts 91°
2026-04-25 16:46 42.96726 -40.56679 32670 ft 565 kts 91°
2026-04-25 16:47 42.97578 -40.42405 32679 ft 567 kts 91°
2026-04-25 16:47 42.98215 -40.31653 32688 ft 568 kts 91°
2026-04-25 16:48 42.98845 -40.20889 32710 ft 568 kts 91°
2026-04-25 16:48 42.99463 -40.10158 32664 ft 566 kts 91°
2026-04-25 16:49 43.00029 -39.99434 32665 ft 564 kts 93°
2026-04-25 16:49 43.00373 -39.88788 32667 ft 566 kts 92°
2026-04-25 16:50 43.00877 -39.78051 32672 ft 565 kts 92°
2026-04-25 16:50 43.01351 -39.67329 32674 ft 565 kts 92°
2026-04-25 16:51 43.01796 -39.56616 32672 ft 565 kts 92°
2026-04-25 16:51 43.02083 -39.49497 32640 ft 565 kts 92°
2026-04-25 16:52 43.02643 -39.35198 32677 ft 566 kts 92°
2026-04-25 16:52 43.02982 -39.26190 32691 ft 567 kts 92°
2026-04-25 16:53 43.03572 -39.10012 32704 ft 568 kts 92°
2026-04-25 16:54 43.03951 -38.99285 32729 ft 568 kts 92°
2026-04-25 16:54 43.04321 -38.88499 32668 ft 568 kts 92°
2026-04-25 16:55 43.04682 -38.77698 32714 ft 569 kts 92°
2026-04-25 16:55 43.05032 -38.66890 32726 ft 569 kts 93°
2026-04-25 16:56 43.05374 -38.56064 32729 ft 569 kts 93°
2026-04-25 16:56 43.05704 -38.45255 32746 ft 569 kts 93°
2026-04-25 16:57 43.06024 -38.34459 32752 ft 568 kts 93°
2026-04-25 16:57 43.06333 -38.23646 32739 ft 567 kts 92°
2026-04-25 16:58 43.06632 -38.12900 32743 ft 568 kts 92°
2026-04-25 16:58 43.06922 -38.02102 32763 ft 568 kts 92°
2026-04-25 16:59 43.07202 -37.91290 32771 ft 568 kts 92°
2026-04-25 16:59 43.07471 -37.80488 32776 ft 568 kts 92°
2026-04-25 17:00 43.07730 -37.69677 32783 ft 568 kts 92°
2026-04-25 17:00 43.07978 -37.58877 32806 ft 567 kts 92°
2026-04-25 17:01 43.08215 -37.48170 32804 ft 566 kts 92°
2026-04-25 17:01 43.08443 -37.37409 32801 ft 566 kts 92°
2026-04-25 17:02 43.08660 -37.26650 32802 ft 565 kts 92°
2026-04-25 17:02 43.08867 -37.15911 32806 ft 565 kts 92°
2026-04-25 17:03 43.09064 -37.05172 32797 ft 564 kts 92°
2026-04-25 17:03 43.09251 -36.94448 32825 ft 563 kts 92°
2026-04-25 17:04 43.09427 -36.83744 32825 ft 563 kts 92°
2026-04-25 17:04 43.09593 -36.73027 32822 ft 564 kts 92°
2026-04-25 17:05 43.09750 -36.62291 32829 ft 564 kts 92°
2026-04-25 17:05 43.09966 -36.46180 32851 ft 565 kts 92°
2026-04-25 17:06 43.10097 -36.35424 32858 ft 565 kts 91°
2026-04-25 17:06 43.10220 -36.24689 32887 ft 563 kts 91°
2026-04-25 17:07 43.10331 -36.14055 32883 ft 562 kts 91°
2026-04-25 17:07 43.10432 -36.03362 32893 ft 561 kts 91°
2026-04-25 17:08 43.10523 -35.92688 32889 ft 561 kts 92°
2026-04-25 17:08 43.10604 -35.82041 32913 ft 559 kts 92°
2026-04-25 17:09 43.10675 -35.71427 32934 ft 556 kts 92°
2026-04-25 17:09 43.10736 -35.60851 32918 ft 555 kts 92°
2026-04-25 17:10 43.10787 -35.50308 32917 ft 554 kts 92°
2026-04-25 17:10 43.10828 -35.39772 32902 ft 553 kts 92°
2026-04-25 17:11 43.10860 -35.29222 32900 ft 553 kts 92°
2026-04-25 17:11 43.10882 -35.18699 32909 ft 553 kts 92°
2026-04-25 17:12 43.10894 -35.08242 32908 ft 552 kts 92°
2026-04-25 17:12 43.10897 -34.97731 32924 ft 552 kts 92°
2026-04-25 17:13 43.10893 -34.90700 32925 ft 551 kts 92°
2026-04-25 17:13 43.10873 -34.76724 32932 ft 552 kts 92°
2026-04-25 17:14 43.10847 -34.66214 32941 ft 552 kts 92°
2026-04-25 17:14 43.10811 -34.55699 32946 ft 552 kts 92°
2026-04-25 17:15 43.10766 -34.45283 32982 ft 550 kts 93°
2026-04-25 17:15 43.10711 -34.34816 32975 ft 549 kts 93°
2026-04-25 17:16 43.10647 -34.24352 32975 ft 549 kts 93°
2026-04-25 17:16 43.10574 -34.13924 32974 ft 548 kts 93°
2026-04-25 17:17 43.10491 -34.03503 32978 ft 547 kts 93°
2026-04-25 17:17 43.10399 -33.93075 32975 ft 547 kts 93°
2026-04-25 17:18 43.10297 -33.82682 32985 ft 545 kts 93°
2026-04-25 17:18 43.10187 -33.72388 32993 ft 544 kts 93°
2026-04-25 17:19 43.10067 -33.62026 32994 ft 544 kts 93°
2026-04-25 17:19 43.09939 -33.51689 32998 ft 543 kts 94°
2026-04-25 17:20 43.09800 -33.41355 32998 ft 543 kts 94°
2026-04-25 17:20 43.09653 -33.31027 32995 ft 542 kts 94°
2026-04-25 17:21 43.09497 -33.20778 32990 ft 542 kts 93°
2026-04-25 17:21 43.09332 -33.10467 33001 ft 543 kts 94°
2026-04-25 17:22 43.09186 -33.01809 33009 ft 543 kts 94°
2026-04-25 17:22 43.08972 -32.89776 33017 ft 544 kts 94°
2026-04-25 17:23 43.08777 -32.79418 33029 ft 545 kts 94°
2026-04-25 17:23 43.08573 -32.69048 33041 ft 546 kts 94°
2026-04-25 17:24 43.08360 -32.58678 33051 ft 545 kts 93°
2026-04-25 17:24 43.08138 -32.48320 33049 ft 544 kts 94°
2026-04-25 17:25 43.07907 -32.38039 33046 ft 544 kts 93°
2026-04-25 17:25 43.07667 -32.27700 33048 ft 544 kts 94°
2026-04-25 17:26 43.07417 -32.17360 33058 ft 544 kts 94°
2026-04-25 17:26 43.07157 -32.07018 33057 ft 544 kts 94°
2026-04-25 17:27 43.06889 -31.96697 33053 ft 543 kts 93°
2026-04-25 17:27 43.06706 -31.89846 33058 ft 543 kts 93°
2026-04-25 17:28 43.06324 -31.76031 33193 ft 546 kts 93°
2026-04-25 17:28 43.06176 -31.70838 33697 ft 546 kts 93°
2026-04-25 17:28 43.06027 -31.65651 34188 ft 545 kts 93°
2026-04-25 17:29 43.05876 -31.60527 34677 ft 543 kts 93°
2026-04-25 17:29 43.05723 -31.55384 35195 ft 540 kts 93°
2026-04-25 17:29 43.05569 -31.50265 35728 ft 538 kts 93°
2026-04-25 17:29 43.05412 -31.45169 36249 ft 535 kts 93°
2026-04-25 17:30 43.05254 -31.40106 36775 ft 531 kts 93°
2026-04-25 17:30 43.05095 -31.35056 37058 ft 533 kts 93°
2026-04-25 17:30 43.04773 -31.25058 37080 ft 523 kts 93°
2026-04-25 17:31 43.04442 -31.15088 37083 ft 525 kts 93°
2026-04-25 17:31 43.04105 -31.05180 37083 ft 523 kts 93°
2026-04-25 17:32 43.03760 -30.95269 37086 ft 522 kts 93°
2026-04-25 17:32 43.03405 -30.85335 37089 ft 522 kts 93°
2026-04-25 17:33 43.03042 -30.75430 37097 ft 522 kts 93°
2026-04-25 17:33 43.02671 -30.65515 37130 ft 521 kts 93°
2026-04-25 17:34 43.02294 -30.55681 37123 ft 521 kts 93°
2026-04-25 17:34 43.01906 -30.45794 37107 ft 520 kts 93°
2026-04-25 17:35 43.01515 -30.35930 37099 ft 519 kts 93°
2026-04-25 17:35 43.01120 -30.26087 37098 ft 519 kts 93°
2026-04-25 17:36 43.00717 -30.16241 37098 ft 518 kts 93°
2026-04-25 17:36 43.00309 -30.06480 37099 ft 517 kts 93°
2026-04-25 17:37 42.99939 -29.96666 37096 ft 517 kts 89°
2026-04-25 17:37 43.00382 -29.86873 37097 ft 517 kts 84°
2026-04-25 17:38 43.00757 -29.80330 37114 ft 516 kts 85°
2026-04-25 17:38 43.01361 -29.67285 37103 ft 516 kts 86°
2026-04-25 17:39 43.01764 -29.57492 37110 ft 516 kts 86°
2026-04-25 17:39 43.02156 -29.47759 37107 ft 515 kts 86°
2026-04-25 17:40 43.02538 -29.37983 37103 ft 515 kts 86°
2026-04-25 17:40 43.02908 -29.28208 37110 ft 514 kts 86°
2026-04-25 17:41 43.03209 -29.20092 37108 ft 514 kts 86°
2026-04-25 17:41 43.03562 -29.10326 37106 ft 514 kts 86°
2026-04-25 17:42 43.03907 -29.00572 37103 ft 514 kts 87°
2026-04-25 17:42 43.04244 -28.90797 37104 ft 514 kts 87°
2026-04-25 17:43 43.04570 -28.81098 37104 ft 514 kts 87°
2026-04-25 17:43 43.04891 -28.71313 37110 ft 514 kts 87°
2026-04-25 17:44 43.05204 -28.61540 37112 ft 515 kts 87°
2026-04-25 17:44 43.05508 -28.51759 37114 ft 515 kts 87°
2026-04-25 17:45 43.05754 -28.43623 37117 ft 515 kts 87°
2026-04-25 17:45 43.06089 -28.32241 37117 ft 515 kts 87°
2026-04-25 17:46 43.06369 -28.22447 37121 ft 515 kts 87°
2026-04-25 17:46 43.06639 -28.12675 37116 ft 515 kts 87°
2026-04-25 17:47 43.06902 -28.02873 37118 ft 514 kts 87°
2026-04-25 17:47 43.07155 -27.93149 37117 ft 514 kts 87°
2026-04-25 17:48 43.07520 -27.78490 37111 ft 514 kts 87°
2026-04-25 17:49 43.07753 -27.68702 37110 ft 514 kts 87°
2026-04-25 17:49 43.07978 -27.58921 37114 ft 514 kts 87°
2026-04-25 17:50 43.08194 -27.49177 37111 ft 514 kts 87°
2026-04-25 17:50 43.08402 -27.39388 37116 ft 514 kts 87°
2026-04-25 17:51 43.08602 -27.29611 37118 ft 514 kts 88°
2026-04-25 17:51 43.08793 -27.19875 37119 ft 514 kts 88°
2026-04-25 17:52 43.08976 -27.10084 37117 ft 515 kts 88°
2026-04-25 17:52 43.09150 -27.00303 37123 ft 514 kts 88°
2026-04-25 17:53 43.09317 -26.90512 37121 ft 514 kts 88°
2026-04-25 17:53 43.09475 -26.80722 37124 ft 513 kts 88°
2026-04-25 17:54 43.09625 -26.70961 37124 ft 513 kts 88°
2026-04-25 17:54 43.09766 -26.61196 37127 ft 513 kts 88°
2026-04-25 17:55 43.09899 -26.51449 37125 ft 512 kts 88°
2026-04-25 17:55 43.10022 -26.41765 37122 ft 512 kts 88°
2026-04-25 17:56 43.10139 -26.32005 37118 ft 512 kts 88°
2026-04-25 17:56 43.10247 -26.22265 37120 ft 512 kts 88°
2026-04-25 17:57 43.10346 -26.12524 37124 ft 512 kts 88°
2026-04-25 17:57 43.10438 -26.02769 37115 ft 512 kts 88°
2026-04-25 17:58 43.10520 -25.93083 37128 ft 512 kts 88°
2026-04-25 17:58 43.10595 -25.83346 37137 ft 511 kts 88°
2026-04-25 17:59 43.10661 -25.73624 37130 ft 510 kts 88°
2026-04-25 17:59 43.10719 -25.63898 37125 ft 510 kts 89°
2026-04-25 18:00 43.10769 -25.54208 37119 ft 509 kts 89°
2026-04-25 18:00 43.10811 -25.44506 37122 ft 509 kts 89°
2026-04-25 18:01 43.10844 -25.34808 37118 ft 509 kts 89°
2026-04-25 18:01 43.10870 -25.25116 37114 ft 509 kts 89°
2026-04-25 18:02 43.10887 -25.15495 37122 ft 509 kts 89°
2026-04-25 18:02 43.10896 -25.05788 37117 ft 509 kts 89°
2026-04-25 18:03 43.10896 -24.96098 37119 ft 509 kts 89°
2026-04-25 18:03 43.10889 -24.86384 37115 ft 509 kts 89°
2026-04-25 18:04 43.10873 -24.76708 37111 ft 509 kts 89°
2026-04-25 18:04 43.10850 -24.67068 37108 ft 509 kts 90°
2026-04-25 18:05 43.10818 -24.57384 37108 ft 509 kts 90°
2026-04-25 18:05 43.10778 -24.47700 37106 ft 509 kts 90°
2026-04-25 18:06 43.10730 -24.37998 37101 ft 509 kts 90°
2026-04-25 18:06 43.10674 -24.28301 37100 ft 509 kts 90°
2026-04-25 18:07 43.10609 -24.18617 37105 ft 508 kts 90°
2026-04-25 18:07 43.10536 -24.08947 37100 ft 508 kts 90°
2026-04-25 18:08 43.10456 -23.99332 37099 ft 508 kts 90°
2026-04-25 18:08 43.10367 -23.89651 37097 ft 508 kts 91°
2026-04-25 18:09 43.10270 -23.79970 37096 ft 508 kts 91°
2026-04-25 18:09 43.10164 -23.70283 37097 ft 508 kts 91°
2026-04-25 18:10 43.10051 -23.60614 37094 ft 509 kts 91°
2026-04-25 18:10 43.09930 -23.50930 37093 ft 509 kts 91°
2026-04-25 18:11 43.09800 -23.41282 37095 ft 509 kts 91°
2026-04-25 18:11 43.09662 -23.31594 37087 ft 509 kts 91°
2026-04-25 18:12 43.09516 -23.21900 37088 ft 509 kts 92°
2026-04-25 18:12 43.09363 -23.12271 37091 ft 510 kts 92°
2026-04-25 18:13 43.09199 -23.02553 37087 ft 510 kts 92°
2026-04-25 18:13 43.09028 -22.92835 37089 ft 511 kts 92°
2026-04-25 18:14 43.08755 -22.78241 37093 ft 511 kts 92°
2026-04-25 18:14 43.08563 -22.68504 37084 ft 512 kts 92°
2026-04-25 18:15 43.08362 -22.58759 37082 ft 513 kts 92°
2026-04-25 18:15 43.08153 -22.49010 37088 ft 513 kts 92°
2026-04-25 18:16 43.07936 -22.39282 37090 ft 514 kts 93°
2026-04-25 18:17 43.07594 -22.24608 37097 ft 514 kts 93°
2026-04-25 18:17 43.07355 -22.14815 37095 ft 514 kts 93°
2026-04-25 18:18 43.07107 -22.05033 37106 ft 514 kts 93°
2026-04-25 18:18 43.06852 -21.95262 37090 ft 514 kts 93°
2026-04-25 18:19 43.06588 -21.85488 37082 ft 514 kts 94°
2026-04-25 18:19 43.06318 -21.75771 37073 ft 515 kts 94°
2026-04-25 18:20 43.06036 -21.65963 37080 ft 517 kts 94°
2026-04-25 18:20 43.05746 -21.56131 37108 ft 518 kts 94°
2026-04-25 18:21 43.05446 -21.46258 37099 ft 520 kts 95°
2026-04-25 18:21 43.05136 -21.36360 37091 ft 522 kts 95°
2026-04-25 18:22 43.04817 -21.26426 37112 ft 523 kts 95°
2026-04-25 18:22 43.04491 -21.16549 37106 ft 523 kts 95°
2026-04-25 18:23 43.04153 -21.06585 37097 ft 525 kts 95°
2026-04-25 18:23 43.03806 -20.96601 37119 ft 526 kts 95°
2026-04-25 18:24 43.03451 -20.86605 37112 ft 526 kts 96°
2026-04-25 18:24 43.03086 -20.76602 37105 ft 527 kts 96°
2026-04-25 18:25 43.02712 -20.66596 37113 ft 527 kts 96°
2026-04-25 18:25 43.02328 -20.56574 37115 ft 528 kts 96°
2026-04-25 18:26 43.01939 -20.46624 37119 ft 528 kts 96°
2026-04-25 18:26 43.01542 -20.36602 37110 ft 528 kts 96°
2026-04-25 18:27 43.01140 -20.26570 37120 ft 528 kts 96°
2026-04-25 18:27 43.00729 -20.16533 37118 ft 528 kts 97°
2026-04-25 18:28 43.00381 -20.08187 37108 ft 529 kts 97°
2026-04-25 18:28 43.00198 -19.96504 37118 ft 533 kts 86°
2026-04-25 18:29 43.01642 -19.83057 37119 ft 535 kts 84°
2026-04-25 18:30 43.03740 -19.62958 37122 ft 536 kts 84°
2026-04-25 18:30 43.04746 -19.52840 37124 ft 536 kts 84°
2026-04-25 18:31 43.05736 -19.42733 37128 ft 536 kts 84°
2026-04-25 18:31 43.06720 -19.32602 37129 ft 536 kts 84°
2026-04-25 18:32 43.07692 -19.22483 37130 ft 537 kts 84°
2026-04-25 18:32 43.08650 -19.12430 37127 ft 536 kts 84°
2026-04-25 18:33 43.09605 -19.02305 37135 ft 536 kts 84°
2026-04-25 18:33 43.10550 -18.92188 37133 ft 535 kts 84°
2026-04-25 18:34 43.11485 -18.82080 37135 ft 535 kts 84°
2026-04-25 18:34 43.12410 -18.71985 37133 ft 534 kts 85°
2026-04-25 18:35 43.13327 -18.61875 37129 ft 534 kts 85°
2026-04-25 18:35 43.14228 -18.51840 37130 ft 534 kts 85°
2026-04-25 18:36 43.15127 -18.41732 37137 ft 534 kts 85°
2026-04-25 18:36 43.16014 -18.31654 37146 ft 533 kts 85°
2026-04-25 18:37 43.16893 -18.21565 37146 ft 532 kts 85°
2026-04-25 18:37 43.17759 -18.11511 37142 ft 532 kts 85°
2026-04-25 18:38 43.18618 -18.01447 37157 ft 530 kts 85°
2026-04-25 18:38 43.19464 -17.91422 37150 ft 529 kts 86°
2026-04-25 18:39 43.20300 -17.81404 37154 ft 528 kts 86°
2026-04-25 18:39 43.21122 -17.71457 37160 ft 527 kts 86°
2026-04-25 18:40 43.21938 -17.61460 37158 ft 527 kts 86°
2026-04-25 18:40 43.22746 -17.51463 37156 ft 527 kts 86°
2026-04-25 18:41 43.23544 -17.41476 37157 ft 527 kts 86°
2026-04-25 18:41 43.24334 -17.31482 37164 ft 527 kts 86°
2026-04-25 18:42 43.24986 -17.23154 37164 ft 527 kts 86°
2026-04-25 18:42 43.25884 -17.11539 37168 ft 527 kts 86°
2026-04-25 18:43 43.26649 -17.01523 37176 ft 527 kts 86°
2026-04-25 18:43 43.27405 -16.91511 37177 ft 527 kts 86°
2026-04-25 18:44 43.28151 -16.81504 37183 ft 527 kts 87°
2026-04-25 18:44 43.28890 -16.71479 37180 ft 527 kts 87°
2026-04-25 18:45 43.29615 -16.61530 37184 ft 527 kts 87°
2026-04-25 18:45 43.30334 -16.51523 37185 ft 527 kts 87°
2026-04-25 18:46 43.31045 -16.41509 37191 ft 527 kts 87°
2026-04-25 18:46 43.31748 -16.31494 37192 ft 526 kts 87°
2026-04-25 18:47 43.32441 -16.21488 37189 ft 526 kts 87°
2026-04-25 18:47 43.33125 -16.11487 37196 ft 526 kts 87°
2026-04-25 18:48 43.33800 -16.01490 37194 ft 526 kts 87°
2026-04-25 18:48 43.34465 -15.91494 37196 ft 525 kts 87°
2026-04-25 18:49 43.35122 -15.81507 37203 ft 525 kts 87°
2026-04-25 18:49 43.35769 -15.71514 37197 ft 524 kts 87°
2026-04-25 18:50 43.36404 -15.61584 37211 ft 524 kts 87°
2026-04-25 18:50 43.37033 -15.51613 37210 ft 523 kts 87°
2026-04-25 18:51 43.37549 -15.43327 37209 ft 523 kts 87°
2026-04-25 18:51 43.38263 -15.31699 37206 ft 522 kts 87°
2026-04-25 18:52 43.38863 -15.21761 37201 ft 522 kts 87°
2026-04-25 18:52 43.39452 -15.11871 37207 ft 521 kts 87°
2026-04-25 18:53 43.40035 -15.01931 37204 ft 521 kts 87°
2026-04-25 18:53 43.40610 -14.91982 37196 ft 521 kts 87°
2026-04-25 18:54 43.41457 -14.77054 37212 ft 521 kts 87°
2026-04-25 18:55 43.42010 -14.67117 37213 ft 521 kts 87°
2026-04-25 18:55 43.42550 -14.57237 37204 ft 521 kts 87°
2026-04-25 18:56 43.43085 -14.47307 37222 ft 521 kts 87°
2026-04-25 18:56 43.43611 -14.37375 37221 ft 521 kts 87°
2026-04-25 18:57 43.44130 -14.27432 37220 ft 520 kts 87°
2026-04-25 18:57 43.44639 -14.17479 37217 ft 520 kts 87°
2026-04-25 18:58 43.45140 -14.07541 37217 ft 520 kts 87°
2026-04-25 18:58 43.45875 -13.92625 37223 ft 521 kts 87°
2026-04-25 18:59 43.46821 -13.72803 37230 ft 519 kts 87°
2026-04-25 19:00 43.47508 -13.57942 37226 ft 518 kts 87°
2026-04-25 19:01 43.48176 -13.43061 37233 ft 516 kts 87°
2026-04-25 19:01 43.48608 -13.33212 37226 ft 515 kts 87°
2026-04-25 19:02 43.49242 -13.18528 37214 ft 513 kts 88°
2026-04-25 19:03 43.49729 -13.07051 37233 ft 512 kts 88°
2026-04-25 19:03 43.49839 -12.94048 37228 ft 509 kts 95°
2026-04-25 19:04 43.49417 -12.79458 37224 ft 507 kts 93°
2026-04-25 19:05 43.48884 -12.59995 37673 ft 509 kts 94°
2026-04-25 19:05 43.48740 -12.55132 38146 ft 508 kts 93°
2026-04-25 19:06 43.48595 -12.50342 38602 ft 507 kts 93°
2026-04-25 19:06 43.48297 -12.40655 39307 ft 505 kts 93°
2026-04-25 19:06 43.48144 -12.35807 39598 ft 506 kts 94°
2026-04-25 19:07 43.47833 -12.26122 40152 ft 506 kts 94°
2026-04-25 19:07 43.47674 -12.21282 40426 ft 507 kts 94°
2026-04-25 19:08 43.47350 -12.11582 40968 ft 507 kts 94°
2026-04-25 19:08 43.47185 -12.06730 41196 ft 508 kts 94°
2026-04-25 19:09 43.46622 -11.90599 41214 ft 503 kts 94°
2026-04-25 19:10 43.45977 -11.72913 41211 ft 505 kts 94°
2026-04-25 19:10 43.45613 -11.63246 41206 ft 505 kts 94°
2026-04-25 19:11 43.45240 -11.53569 41224 ft 506 kts 94°
2026-04-25 19:11 43.44862 -11.43945 41220 ft 506 kts 94°
2026-04-25 19:12 43.44473 -11.34267 41218 ft 506 kts 94°
2026-04-25 19:12 43.44076 -11.24583 41223 ft 506 kts 94°
2026-04-25 19:13 43.43670 -11.14901 41226 ft 506 kts 94°
2026-04-25 19:13 43.43258 -11.05245 41220 ft 506 kts 94°
2026-04-25 19:14 43.42837 -10.95580 41220 ft 505 kts 94°
2026-04-25 19:14 43.42481 -10.87569 41211 ft 504 kts 94°
2026-04-25 19:15 43.41976 -10.76380 41211 ft 504 kts 94°
2026-04-25 19:15 43.41532 -10.66769 41208 ft 503 kts 95°
2026-04-25 19:16 43.41155 -10.58717 41195 ft 503 kts 95°
2026-04-25 19:16 43.40700 -10.49176 41196 ft 502 kts 95°
2026-04-25 19:17 43.40235 -10.39591 41196 ft 502 kts 95°
2026-04-25 19:17 43.39763 -10.30012 41192 ft 502 kts 95°
2026-04-25 19:18 43.39282 -10.20438 41197 ft 502 kts 95°
2026-04-25 19:18 43.38794 -10.10866 41188 ft 502 kts 95°
2026-04-25 19:19 43.38298 -10.01295 41190 ft 502 kts 95°
2026-04-25 19:19 43.37793 -9.91720 41186 ft 502 kts 95°
2026-04-25 19:20 43.37283 -9.82202 41180 ft 502 kts 95°
2026-04-25 19:20 43.36762 -9.72623 41200 ft 502 kts 95°
2026-04-25 19:21 43.36231 -9.63016 41181 ft 503 kts 95°
2026-04-25 19:21 43.35421 -9.48613 41185 ft 503 kts 95°
2026-04-25 19:22 43.34870 -9.39011 41183 ft 504 kts 95°
2026-04-25 19:23 43.34029 -9.24612 41195 ft 503 kts 95°
2026-04-25 19:23 43.33175 -9.10295 41168 ft 503 kts 95°
2026-04-25 19:24 43.32593 -9.00722 41190 ft 502 kts 95°
2026-04-25 19:25 43.31410 -8.81637 41158 ft 501 kts 95°
2026-04-25 19:25 43.30807 -8.72100 41136 ft 501 kts 95°
2026-04-25 19:26 43.30201 -8.62651 41161 ft 499 kts 95°
2026-04-25 19:26 43.29581 -8.53110 41156 ft 498 kts 95°
2026-04-25 19:27 43.29064 -8.45246 41143 ft 497 kts 95°
2026-04-25 19:27 43.28333 -8.34255 41161 ft 496 kts 95°
2026-04-25 19:28 43.27695 -8.24797 41148 ft 497 kts 95°
2026-04-25 19:28 43.27051 -8.15365 41139 ft 497 kts 95°
2026-04-25 19:29 43.26403 -8.05992 41143 ft 497 kts 95°
2026-04-25 19:29 43.25742 -7.96544 41159 ft 497 kts 95°
2026-04-25 19:30 43.25073 -7.87092 41161 ft 498 kts 95°
2026-04-25 19:30 43.24394 -7.77618 41161 ft 498 kts 95°
2026-04-25 19:31 43.23708 -7.68146 41162 ft 499 kts 95°
2026-04-25 19:31 43.23018 -7.58737 41175 ft 499 kts 95°
2026-04-25 19:32 43.22315 -7.49203 41172 ft 499 kts 95°
2026-04-25 19:32 43.21731 -7.41328 41166 ft 499 kts 95°
2026-04-25 19:33 43.20649 -7.30356 41172 ft 499 kts 99°
2026-04-25 19:33 43.19504 -7.21016 41177 ft 499 kts 98°
2026-04-25 19:34 43.18385 -7.11575 41171 ft 498 kts 98°
2026-04-25 19:34 43.17261 -7.02217 41172 ft 497 kts 98°
2026-04-25 19:35 43.16123 -6.92879 41171 ft 497 kts 99°
2026-04-25 19:35 43.14982 -6.83615 41173 ft 496 kts 99°
2026-04-25 19:36 43.13828 -6.74307 41162 ft 496 kts 99°
2026-04-25 19:36 43.12667 -6.65005 41164 ft 495 kts 99°
2026-04-25 19:37 43.11500 -6.55715 41167 ft 495 kts 99°
2026-04-25 19:37 43.10326 -6.46442 41172 ft 494 kts 99°
2026-04-25 19:38 43.09145 -6.37168 41155 ft 494 kts 99°
2026-04-25 19:38 43.07955 -6.27889 41162 ft 495 kts 99°
2026-04-25 19:39 43.06757 -6.18612 41160 ft 495 kts 99°
2026-04-25 19:39 43.05559 -6.09389 41171 ft 495 kts 99°
2026-04-25 19:40 43.04345 -6.00111 41176 ft 496 kts 99°
2026-04-25 19:40 43.03122 -5.90824 41179 ft 496 kts 99°
2026-04-25 19:41 43.01890 -5.81528 41177 ft 496 kts 99°
2026-04-25 19:41 43.01072 -5.75386 41190 ft 497 kts 99°
2026-04-25 19:42 42.99410 -5.62995 41193 ft 497 kts 99°
2026-04-25 19:42 42.98157 -5.53724 41189 ft 496 kts 99°
2026-04-25 19:43 42.96896 -5.44449 41180 ft 496 kts 99°
2026-04-25 19:43 42.95635 -5.35237 41180 ft 496 kts 99°
2026-04-25 19:44 42.94354 -5.25930 41187 ft 496 kts 100°
2026-04-25 19:44 42.93080 -5.16738 41187 ft 496 kts 100°
2026-04-25 19:45 42.91789 -5.07489 41184 ft 496 kts 100°
2026-04-25 19:45 42.90491 -4.98235 41185 ft 495 kts 100°
2026-04-25 19:46 42.89189 -4.89011 41193 ft 495 kts 101°
2026-04-25 19:46 42.87886 -4.79832 41194 ft 495 kts 101°
2026-04-25 19:47 42.86568 -4.70608 41197 ft 495 kts 101°
2026-04-25 19:47 42.85241 -4.61383 41194 ft 495 kts 101°
2026-04-25 19:48 42.83909 -4.52170 41195 ft 495 kts 101°
2026-04-25 19:48 42.82579 -4.43025 41203 ft 495 kts 101°
2026-04-25 19:49 42.81678 -4.36861 41207 ft 495 kts 101°
2026-04-25 19:49 42.79878 -4.24623 41206 ft 495 kts 101°
2026-04-25 19:50 42.77833 -4.10832 41210 ft 495 kts 101°
2026-04-25 19:51 42.76461 -4.01648 41209 ft 495 kts 101°
2026-04-25 19:51 42.75083 -3.92472 41204 ft 495 kts 101°
2026-04-25 19:52 42.73706 -3.83358 41209 ft 495 kts 101°
2026-04-25 19:52 42.72313 -3.74193 41217 ft 495 kts 101°
2026-04-25 19:53 42.70916 -3.65049 41214 ft 494 kts 101°
2026-04-25 19:53 42.69509 -3.55895 41206 ft 494 kts 101°
2026-04-25 19:54 42.68096 -3.46750 41209 ft 494 kts 102°
2026-04-25 19:54 42.66675 -3.37611 41203 ft 494 kts 102°
2026-04-25 19:55 42.65247 -3.28470 41210 ft 494 kts 102°
2026-04-25 19:55 42.63811 -3.19331 41200 ft 494 kts 102°
2026-04-25 19:56 42.62378 -3.10262 41195 ft 495 kts 102°
2026-04-25 19:56 42.60927 -3.01130 41188 ft 495 kts 102°
2026-04-25 19:57 42.59466 -2.91985 41196 ft 496 kts 102°
2026-04-25 19:57 42.57997 -2.82840 41195 ft 496 kts 102°
2026-04-25 19:58 42.56520 -2.73697 41196 ft 496 kts 102°
2026-04-25 19:58 42.55035 -2.64545 41167 ft 497 kts 102°
2026-04-25 19:59 42.53540 -2.55390 41177 ft 497 kts 102°
2026-04-25 19:59 42.52047 -2.46289 41164 ft 498 kts 102°
2026-04-25 20:00 42.50535 -2.37127 41164 ft 498 kts 102°
2026-04-25 20:00 42.49013 -2.27949 41165 ft 498 kts 102°
2026-04-25 20:01 42.46976 -2.15740 41149 ft 498 kts 102°
2026-04-25 20:01 42.45442 -2.06590 41154 ft 499 kts 102°
2026-04-25 20:02 42.43901 -1.97424 41165 ft 499 kts 102°
2026-04-25 20:02 42.42369 -1.88258 41177 ft 498 kts 101°
2026-04-25 20:03 42.41226 -1.79011 41160 ft 498 kts 98°
2026-04-25 20:03 42.40143 -1.69764 41150 ft 498 kts 99°
2026-04-25 20:04 42.39002 -1.60535 41156 ft 497 kts 99°
2026-04-25 20:04 42.37847 -1.51386 41155 ft 496 kts 99°
2026-04-25 20:05 42.36680 -1.42210 41158 ft 494 kts 99°
2026-04-25 20:05 42.35508 -1.33054 41128 ft 493 kts 99°
2026-04-25 20:06 42.34338 -1.23965 41125 ft 492 kts 99°
2026-04-25 20:06 42.33155 -1.14840 41130 ft 491 kts 100°
2026-04-25 20:07 42.31973 -1.05778 41147 ft 489 kts 100°
2026-04-25 20:07 42.30785 -0.96728 41133 ft 487 kts 100°
2026-04-25 20:08 42.29600 -0.87762 41131 ft 486 kts 100°
2026-04-25 20:08 42.28404 -0.78770 41111 ft 485 kts 100°
2026-04-25 20:09 42.27203 -0.69790 41105 ft 485 kts 101°
2026-04-25 20:09 42.26006 -0.60899 41108 ft 484 kts 101°
2026-04-25 20:10 42.24794 -0.51948 41113 ft 484 kts 101°
2026-04-25 20:10 42.23574 -0.43000 41125 ft 485 kts 101°
2026-04-25 20:11 42.22348 -0.34057 41131 ft 485 kts 101°
2026-04-25 20:11 42.21152 -0.25092 41133 ft 486 kts 98°
2026-04-25 20:12 42.20665 -0.16038 40787 ft 482 kts 93°
2026-04-25 20:12 42.20488 -0.11529 40307 ft 479 kts 94°
2026-04-25 20:12 42.20368 -0.08567 40189 ft 476 kts 94°
2026-04-25 20:13 42.19925 0.01946 40136 ft 487 kts 94°
2026-04-25 20:13 42.19531 0.11068 40129 ft 485 kts 94°
2026-04-25 20:14 42.19133 0.20149 40129 ft 485 kts 94°
2026-04-25 20:14 42.18729 0.29178 40129 ft 485 kts 94°
2026-04-25 20:15 42.18316 0.38265 40134 ft 485 kts 94°
2026-04-25 20:15 42.17896 0.47338 40128 ft 485 kts 94°
2026-04-25 20:16 42.17468 0.56416 40129 ft 485 kts 94°
2026-04-25 20:16 42.17034 0.65494 40137 ft 485 kts 94°
2026-04-25 20:17 42.16585 0.74709 40148 ft 500 kts 94°
2026-04-25 20:17 42.16122 0.84077 40151 ft 498 kts 94°
2026-04-25 20:18 42.15655 0.93357 40155 ft 500 kts 95°
2026-04-25 20:18 42.15175 1.02736 40144 ft 500 kts 95°
2026-04-25 20:19 42.14691 1.12067 40142 ft 500 kts 95°
2026-04-25 20:19 42.14196 1.21445 40141 ft 504 kts 95°
2026-04-25 20:20 42.13691 1.30883 40140 ft 504 kts 95°
2026-04-25 20:20 42.13097 1.40262 40141 ft 502 kts 96°
2026-04-25 20:21 42.12402 1.49632 40145 ft 502 kts 96°
2026-04-25 20:21 42.11720 1.59010 40148 ft 502 kts 96°
2026-04-25 20:22 42.11271 1.65213 40153 ft 502 kts 96°
2026-04-25 20:22 42.10357 1.77704 40153 ft 502 kts 96°
2026-04-25 20:23 42.09663 1.87063 40141 ft 502 kts 96°
2026-04-25 20:23 42.08962 1.96413 40133 ft 502 kts 96°
2026-04-25 20:24 42.08252 2.05774 40130 ft 502 kts 96°
2026-04-25 20:24 42.07535 2.15133 40124 ft 503 kts 96°
2026-04-25 20:25 42.06813 2.24446 40130 ft 503 kts 96°
2026-04-25 20:25 42.06080 2.33806 40123 ft 503 kts 96°
2026-04-25 20:26 42.05338 2.43194 40116 ft 504 kts 96°
2026-04-25 20:26 42.04592 2.52514 40105 ft 504 kts 97°
2026-04-25 20:27 42.03835 2.61884 40103 ft 504 kts 97°
2026-04-25 20:27 42.03071 2.71239 40106 ft 503 kts 97°
2026-04-25 20:28 42.02298 2.80618 40103 ft 503 kts 97°
2026-04-25 20:28 42.01519 2.89973 40095 ft 503 kts 97°
2026-04-25 20:29 42.00732 2.99322 40093 ft 503 kts 97°
2026-04-25 20:29 41.99938 3.08667 40091 ft 503 kts 97°
2026-04-25 20:30 41.99136 3.18021 40091 ft 503 kts 97°
2026-04-25 20:30 41.98326 3.27369 40096 ft 503 kts 97°
2026-04-25 20:31 41.97514 3.36661 40107 ft 503 kts 97°
2026-04-25 20:31 41.96689 3.46003 40108 ft 504 kts 97°
2026-04-25 20:32 41.95856 3.55347 40114 ft 504 kts 97°
2026-04-25 20:32 41.95015 3.64699 40114 ft 504 kts 97°
2026-04-25 20:33 41.94167 3.74035 40118 ft 504 kts 97°
2026-04-25 20:33 41.93601 3.80224 40119 ft 504 kts 97°
2026-04-25 20:34 41.93366 3.92789 40113 ft 505 kts 81°
2026-04-25 20:34 41.95169 4.01891 40113 ft 505 kts 67°
2026-04-25 20:35 41.97977 4.10473 40111 ft 506 kts 66°
2026-04-25 20:35 42.00785 4.19149 40116 ft 506 kts 66°
2026-04-25 20:36 42.03584 4.27828 40118 ft 505 kts 66°
2026-04-25 20:36 42.06720 4.36217 40120 ft 499 kts 57°
2026-04-25 20:37 42.10327 4.44118 40119 ft 491 kts 58°
2026-04-25 20:37 42.13877 4.51929 40116 ft 492 kts 57°
2026-04-25 20:38 42.17446 4.59805 40116 ft 492 kts 57°
2026-04-25 20:38 42.21010 4.67693 40113 ft 491 kts 58°
2026-04-25 20:39 42.24554 4.75570 40101 ft 490 kts 57°
2026-04-25 20:39 42.26891 4.80775 40097 ft 489 kts 58°
2026-04-25 20:40 42.31582 4.91252 40090 ft 490 kts 57°
2026-04-25 20:40 42.35102 4.99136 40092 ft 490 kts 58°
2026-04-25 20:41 42.38627 5.07052 40098 ft 490 kts 57°
2026-04-25 20:41 42.42141 5.14967 40105 ft 491 kts 58°
2026-04-25 20:42 42.45661 5.22914 40117 ft 491 kts 58°
2026-04-25 20:42 42.49145 5.30801 40128 ft 491 kts 58°
2026-04-25 20:43 42.52655 5.38771 40133 ft 491 kts 58°
2026-04-25 20:43 42.56151 5.46729 40127 ft 491 kts 58°
2026-04-25 20:44 42.59642 5.54698 40121 ft 490 kts 58°
2026-04-25 20:44 42.63122 5.62661 40115 ft 490 kts 58°
2026-04-25 20:45 42.66573 5.70581 40115 ft 489 kts 58°
2026-04-25 20:45 42.70033 5.78542 40117 ft 489 kts 58°
2026-04-25 20:46 42.73485 5.86505 40106 ft 488 kts 58°
2026-04-25 20:46 42.76925 5.94463 40105 ft 488 kts 58°
2026-04-25 20:47 42.79779 6.01082 40102 ft 487 kts 58°
2026-04-25 20:47 42.83210 6.09060 40082 ft 487 kts 58°
2026-04-25 20:48 42.86635 6.17044 40081 ft 488 kts 58°
2026-04-25 20:48 42.90050 6.25028 40090 ft 488 kts 58°
2026-04-25 20:49 42.93469 6.33042 40092 ft 488 kts 58°
2026-04-25 20:49 42.96879 6.41057 40099 ft 488 kts 58°
2026-04-25 20:50 43.00288 6.49093 40103 ft 489 kts 58°
2026-04-25 20:50 43.03692 6.57138 40099 ft 489 kts 58°
2026-04-25 20:51 43.07092 6.65195 40095 ft 489 kts 58°
2026-04-25 20:51 43.10487 6.73265 40103 ft 489 kts 58°
2026-04-25 20:52 43.13301 6.79969 40103 ft 489 kts 58°
2026-04-25 20:52 43.17244 6.89391 40101 ft 490 kts 58°
2026-04-25 20:53 43.20624 6.97491 40104 ft 490 kts 59°
2026-04-25 20:53 43.24001 7.05606 40107 ft 490 kts 59°
2026-04-25 20:54 43.27369 7.13725 40100 ft 490 kts 59°
2026-04-25 20:54 43.30732 7.21852 40104 ft 489 kts 59°
2026-04-25 20:55 43.34088 7.29985 40111 ft 489 kts 59°
2026-04-25 20:55 43.37437 7.38126 40106 ft 489 kts 59°
2026-04-25 20:56 43.40779 7.46272 40105 ft 489 kts 59°
2026-04-25 20:56 43.44114 7.54422 40104 ft 489 kts 59°
2026-04-25 20:57 43.47444 7.62586 40106 ft 489 kts 59°
2026-04-25 20:57 43.50749 7.70712 40105 ft 489 kts 59°
2026-04-25 20:58 43.54069 7.78895 40104 ft 489 kts 59°
2026-04-25 20:58 43.57380 7.87081 40108 ft 489 kts 59°
2026-04-25 20:59 43.60686 7.95279 40115 ft 489 kts 59°
2026-04-25 20:59 43.63993 8.03502 40094 ft 489 kts 59°
2026-04-25 21:00 43.66179 8.08949 40097 ft 490 kts 59°
2026-04-25 21:01 43.72218 8.24057 40112 ft 490 kts 59°
2026-04-25 21:01 43.75510 8.32326 40123 ft 491 kts 59°
2026-04-25 21:02 43.78797 8.40606 40103 ft 491 kts 59°
2026-04-25 21:02 43.82085 8.48914 40108 ft 491 kts 59°
2026-04-25 21:03 43.85346 8.57176 40127 ft 491 kts 60°
2026-04-25 21:03 43.88621 8.65500 40133 ft 491 kts 60°
2026-04-25 21:04 43.91889 8.73829 40113 ft 492 kts 60°
2026-04-25 21:04 43.95155 8.82178 40115 ft 492 kts 60°
2026-04-25 21:05 43.98412 8.90530 40115 ft 492 kts 60°
2026-04-25 21:05 44.01673 8.98917 40119 ft 492 kts 60°
2026-04-25 21:06 44.04924 9.07301 40117 ft 493 kts 60°
2026-04-25 21:06 44.08174 9.15703 40116 ft 493 kts 60°
2026-04-25 21:07 44.11433 9.24096 40116 ft 493 kts 58°
2026-04-25 21:07 44.15403 9.31821 40117 ft 490 kts 46°
2026-04-25 21:08 44.20289 9.38394 40121 ft 487 kts 38°
2026-04-25 21:08 44.25382 9.44561 40126 ft 488 kts 39°
2026-04-25 21:09 44.33077 9.53906 40123 ft 489 kts 39°
2026-04-25 21:09 44.38204 9.60138 40114 ft 489 kts 39°
2026-04-25 21:10 44.43341 9.66398 40117 ft 489 kts 39°
2026-04-25 21:10 44.48468 9.72659 40104 ft 488 kts 39°
2026-04-25 21:11 44.53524 9.78920 40096 ft 489 kts 44°
2026-04-25 21:11 44.58145 9.85948 40068 ft 490 kts 45°
2026-04-25 21:12 44.62751 9.92993 40074 ft 490 kts 45°
2026-04-25 21:12 44.66617 9.98900 40047 ft 491 kts 45°
2026-04-25 21:13 44.71994 10.07136 40030 ft 491 kts 45°
2026-04-25 21:13 44.76605 10.14225 40024 ft 491 kts 45°
2026-04-25 21:14 44.81218 10.21336 40021 ft 491 kts 45°
2026-04-25 21:14 44.85820 10.28446 40020 ft 491 kts 45°
2026-04-25 21:15 44.90390 10.35526 40039 ft 491 kts 45°
2026-04-25 21:15 44.94990 10.42670 40034 ft 491 kts 45°
2026-04-25 21:16 44.99591 10.49834 40040 ft 491 kts 45°
2026-04-25 21:16 45.04186 10.57007 40041 ft 492 kts 45°
2026-04-25 21:17 45.08743 10.64141 40043 ft 492 kts 45°
2026-04-25 21:17 45.13331 10.71340 40028 ft 492 kts 45°
2026-04-25 21:18 45.17906 10.78539 40026 ft 492 kts 45°
2026-04-25 21:18 45.22480 10.85754 40019 ft 492 kts 45°
2026-04-25 21:19 45.27062 10.92999 40027 ft 492 kts 45°
2026-04-25 21:19 45.31629 11.00241 40024 ft 492 kts 45°
2026-04-25 21:20 45.34651 11.05045 40023 ft 492 kts 45°
2026-04-25 21:20 45.40714 11.14703 40020 ft 491 kts 45°
2026-04-25 21:21 45.45269 11.21984 40025 ft 491 kts 45°
2026-04-25 21:21 45.49781 11.29214 40022 ft 491 kts 45°
2026-04-25 21:22 45.54330 11.36521 40020 ft 491 kts 45°
2026-04-25 21:22 45.58865 11.43826 40020 ft 491 kts 46°
2026-04-25 21:23 45.63392 11.51138 40002 ft 491 kts 46°
2026-04-25 21:23 45.67908 11.58451 40027 ft 491 kts 46°
2026-04-25 21:24 45.72392 11.65730 40029 ft 491 kts 46°
2026-04-25 21:24 45.76905 11.73078 40060 ft 491 kts 46°
2026-04-25 21:25 45.81419 11.80446 40071 ft 491 kts 46°
2026-04-25 21:25 45.85919 11.87811 40071 ft 491 kts 46°
2026-04-25 21:26 45.90428 11.95210 40033 ft 492 kts 46°
2026-04-25 21:26 45.94907 12.02580 40042 ft 493 kts 46°
2026-04-25 21:27 45.99417 12.10021 40044 ft 493 kts 46°
2026-04-25 21:27 46.03923 12.17476 40041 ft 493 kts 46°
2026-04-25 21:28 46.08427 12.24946 40043 ft 493 kts 46°
2026-04-25 21:28 46.12895 12.32377 40043 ft 493 kts 46°
2026-04-25 21:29 46.17384 12.39866 40045 ft 493 kts 46°
2026-04-25 21:29 46.21867 12.47363 40047 ft 493 kts 46°
2026-04-25 21:30 46.26344 12.54869 40045 ft 493 kts 46°
2026-04-25 21:30 46.30069 12.61131 40058 ft 493 kts 46°
2026-04-25 21:31 46.35289 12.69932 40054 ft 493 kts 46°
2026-04-25 21:31 46.39752 12.77478 40049 ft 492 kts 46°
2026-04-25 21:32 46.44206 12.85029 40040 ft 492 kts 46°
2026-04-25 21:32 46.48648 12.92581 40054 ft 492 kts 46°
2026-04-25 21:33 46.53054 13.00093 40052 ft 491 kts 46°
2026-04-25 21:33 46.56850 13.08352 40052 ft 498 kts 64°
2026-04-25 21:34 46.59485 13.17663 40044 ft 498 kts 65°
2026-04-25 21:34 46.61689 13.25471 40019 ft 494 kts 64°
2026-04-25 21:35 46.62993 13.30053 39701 ft 489 kts 64°
2026-04-25 21:35 46.64299 13.34625 39168 ft 488 kts 64°
2026-04-25 21:35 46.65602 13.39188 38516 ft 489 kts 64°
2026-04-25 21:35 46.66892 13.43713 37839 ft 489 kts 64°
2026-04-25 21:36 46.68192 13.48283 37165 ft 488 kts 64°
2026-04-25 21:36 46.69484 13.52841 36510 ft 487 kts 64°
2026-04-25 21:36 46.70774 13.57397 35833 ft 486 kts 64°
2026-04-25 21:36 46.72059 13.61946 35145 ft 485 kts 64°
2026-04-25 21:37 46.73342 13.66497 34467 ft 484 kts 64°
2026-04-25 21:37 46.74191 13.69510 34032 ft 483 kts 64°
2026-04-25 21:37 46.75883 13.75536 33255 ft 476 kts 64°
2026-04-25 21:37 46.77120 13.79952 33075 ft 468 kts 64°
2026-04-25 21:38 46.79581 13.88745 33063 ft 474 kts 64°
2026-04-25 21:38 46.82074 13.97684 33067 ft 475 kts 65°
2026-04-25 21:39 46.84556 14.06626 33053 ft 475 kts 65°
2026-04-25 21:39 46.87030 14.15573 33055 ft 475 kts 65°
2026-04-25 21:40 46.89495 14.24519 33013 ft 472 kts 65°
2026-04-25 21:40 46.90712 14.28953 32561 ft 469 kts 65°
2026-04-25 21:40 46.91921 14.33362 32063 ft 464 kts 65°
2026-04-25 21:41 46.93117 14.37734 31490 ft 460 kts 65°
2026-04-25 21:41 46.94301 14.42070 30944 ft 456 kts 65°
2026-04-25 21:41 46.95471 14.46359 30410 ft 452 kts 65°
2026-04-25 21:41 46.96634 14.50626 29579 ft 453 kts 66°
2026-04-25 21:42 46.97803 14.54923 28872 ft 452 kts 66°
2026-04-25 21:42 46.98943 14.59129 28313 ft 447 kts 66°
2026-04-25 21:42 47.00086 14.63350 27704 ft 444 kts 66°
2026-04-25 21:42 47.01219 14.67540 27098 ft 441 kts 66°
2026-04-25 21:43 47.02343 14.71704 26499 ft 438 kts 66°
2026-04-25 21:43 47.03458 14.75843 25930 ft 435 kts 66°
2026-04-25 21:43 47.04563 14.79953 25357 ft 432 kts 67°
2026-04-25 21:43 47.05661 14.84044 24782 ft 429 kts 66°
2026-04-25 21:44 47.06749 14.88107 24229 ft 426 kts 66°
2026-04-25 21:44 47.07832 14.92155 23678 ft 424 kts 67°
2026-04-25 21:44 47.09969 15.00166 22376 ft 420 kts 66°
2026-04-25 21:45 47.11026 15.04141 21806 ft 417 kts 66°
2026-04-25 21:45 47.11722 15.06759 21429 ft 414 kts 66°
2026-04-25 21:45 47.13114 15.12006 20705 ft 410 kts 66°
2026-04-25 21:45 47.14144 15.15894 20137 ft 407 kts 66°
2026-04-25 21:46 47.15165 15.19757 19598 ft 405 kts 66°
2026-04-25 21:46 47.16178 15.23596 19078 ft 402 kts 66°
2026-04-25 21:46 47.17169 15.27359 18565 ft 399 kts 66°
2026-04-25 21:46 47.18165 15.31146 18157 ft 395 kts 66°
2026-04-25 21:47 47.19157 15.34921 18063 ft 396 kts 66°
2026-04-25 21:47 47.20145 15.38682 18042 ft 396 kts 66°
2026-04-25 21:47 47.21140 15.42483 18042 ft 397 kts 66°
2026-04-25 21:47 47.22132 15.46278 18055 ft 397 kts 66°
2026-04-25 21:48 47.23125 15.50082 18048 ft 398 kts 66°
2026-04-25 21:48 47.24115 15.53881 18047 ft 398 kts 66°
2026-04-25 21:48 47.25102 15.57675 18043 ft 397 kts 66°
2026-04-25 21:48 47.26119 15.61459 18040 ft 396 kts 61°
2026-04-25 21:49 47.27634 15.64785 18048 ft 389 kts 45°
2026-04-25 21:49 47.29415 15.67794 18041 ft 389 kts 45°
2026-04-25 21:49 47.31197 15.70799 18048 ft 390 kts 45°
2026-04-25 21:49 47.32974 15.73817 18042 ft 390 kts 45°
2026-04-25 21:50 47.34743 15.76841 18049 ft 389 kts 45°
2026-04-25 21:50 47.36513 15.79876 18051 ft 392 kts 45°
2026-04-25 21:50 47.38293 15.82936 18004 ft 392 kts 45°
2026-04-25 21:50 47.39461 15.84949 17935 ft 388 kts 45°
2026-04-25 21:51 47.41805 15.88995 17315 ft 385 kts 46°
2026-04-25 21:51 47.43535 15.91983 16768 ft 382 kts 46°
2026-04-25 21:51 47.45256 15.94955 16182 ft 379 kts 46°
2026-04-25 21:51 47.46937 15.97863 15669 ft 376 kts 46°
2026-04-25 21:52 47.48628 16.00793 15124 ft 373 kts 46°
2026-04-25 21:52 47.50303 16.03699 14578 ft 370 kts 46°
2026-04-25 21:52 47.51964 16.06582 14061 ft 368 kts 45°
2026-04-25 21:52 47.53624 16.09462 13501 ft 365 kts 46°
2026-04-25 21:53 47.55271 16.12323 13004 ft 361 kts 46°
2026-04-25 21:53 47.56892 16.15147 12473 ft 358 kts 46°
2026-04-25 21:53 47.58498 16.17946 11948 ft 355 kts 46°
2026-04-25 21:53 47.60089 16.20720 11456 ft 351 kts 46°
2026-04-25 21:54 47.61647 16.23443 10906 ft 349 kts 46°
2026-04-25 21:54 47.63199 16.26156 10587 ft 340 kts 46°
2026-04-25 21:54 47.64697 16.28781 10454 ft 326 kts 46°
2026-04-25 21:54 47.66136 16.31306 10325 ft 313 kts 46°
2026-04-25 21:55 47.67514 16.33722 10181 ft 301 kts 46°
2026-04-25 21:55 47.68858 16.36078 9903 ft 296 kts 45°
2026-04-25 21:55 47.70184 16.38400 9520 ft 294 kts 46°
2026-04-25 21:55 47.71502 16.40711 9149 ft 292 kts 46°
2026-04-25 21:56 47.72808 16.43004 8769 ft 290 kts 46°
2026-04-25 21:56 47.73669 16.44519 8529 ft 288 kts 46°
2026-04-25 21:56 47.75371 16.47518 8055 ft 286 kts 46°
2026-04-25 21:56 47.76645 16.49766 7711 ft 283 kts 46°
2026-04-25 21:57 47.77914 16.52006 7343 ft 282 kts 47°
2026-04-25 21:57 47.79169 16.54223 7031 ft 278 kts 47°
2026-04-25 21:57 47.80410 16.56417 6677 ft 277 kts 47°
2026-04-25 21:57 47.81646 16.58602 6340 ft 274 kts 47°
2026-04-25 21:58 47.82870 16.60769 6064 ft 270 kts 46°
2026-04-25 21:58 47.84040 16.62851 5999 ft 252 kts 47°
2026-04-25 21:58 47.85139 16.64806 6001 ft 242 kts 46°
2026-04-25 21:58 47.86220 16.66721 6010 ft 242 kts 46°
2026-04-25 21:59 47.87291 16.68620 5997 ft 235 kts 45°
2026-04-25 21:59 47.88300 16.70415 5917 ft 224 kts 45°
2026-04-25 21:59 47.89273 16.72175 5835 ft 214 kts 50°
2026-04-25 22:00 47.90316 16.76048 4913 ft 199 kts 65°
2026-04-25 22:00 47.90756 16.78027 4253 ft 201 kts 65°
2026-04-25 22:00 47.91188 16.80000 4031 ft 200 kts 65°
2026-04-25 22:00 47.91622 16.81955 3714 ft 199 kts 65°
2026-04-25 22:01 47.92063 16.83893 3247 ft 194 kts 56°
2026-04-25 22:01 47.92906 16.85390 3039 ft 190 kts 35°
2026-04-25 22:01 47.93868 16.86741 2994 ft 190 kts 35°
2026-04-25 22:01 47.94514 16.87612 2989 ft 187 kts 27°
2026-04-25 22:02 47.96066 16.88025 2994 ft 165 kts 335°
2026-04-25 22:02 47.97047 16.87203 2998 ft 162 kts 325°
2026-04-25 22:02 47.98008 16.86314 2998 ft 162 kts 325°
2026-04-25 22:02 47.98962 16.85430 3002 ft 162 kts 325°
2026-04-25 22:03 47.99917 16.84543 2999 ft 161 kts 325°
2026-04-25 22:03 48.00868 16.83659 3005 ft 169 kts 325°
2026-04-25 22:03 48.01903 16.82683 3001 ft 179 kts 324°
2026-04-25 22:03 48.02849 16.81460 3000 ft 181 kts 310°
2026-04-25 22:04 48.03561 16.79915 3000 ft 181 kts 301°
2026-04-25 22:04 48.04154 16.78241 3000 ft 183 kts 297°
2026-04-25 22:04 48.04720 16.76517 3000 ft 185 kts 297°
2026-04-25 22:04 48.05272 16.74831 2995 ft 173 kts 297°
2026-04-25 22:05 48.05785 16.73258 2885 ft 166 kts 297°
2026-04-25 22:05 48.06278 16.71749 2675 ft 162 kts 297°
2026-04-25 22:05 48.06771 16.70238 2455 ft 161 kts 296°
2026-04-25 22:05 48.07260 16.68738 2237 ft 158 kts 296°
2026-04-25 22:06 48.07735 16.67284 2030 ft 149 kts 295°
2026-04-25 22:06 48.08158 16.65985 1832 ft 131 kts 295°
2026-04-25 22:06 48.08547 16.64792 1676 ft 124 kts 296°
2026-04-25 22:06 48.08925 16.63636 1500 ft 126 kts 295°
2026-04-25 22:07 48.09318 16.62422 1338 ft 129 kts 296°
2026-04-25 22:07 48.09581 16.61626 1224 ft 129 kts 295°
2026-04-25 22:07 48.10106 16.59997 991 ft 130 kts 296°
2026-04-25 22:07 48.10499 16.58765 820 ft 132 kts 296°
2026-04-25 22:08 48.10911 16.57542 662 ft 131 kts 296°
2026-04-25 22:08 48.11263 16.56456 637 ft 97 kts 296°
2026-04-25 22:08 48.11507 16.55717 631 ft 63 kts 296°
2026-04-25 22:08 48.11669 16.55221 622 ft 46 kts 296°
2026-04-25 22:09 48.11801 16.54836 623 ft 34 kts 302°
2026-04-25 22:09 48.11936 16.54622 627 ft 24 kts 323°
2026-04-25 22:09 48.12037 16.54553 623 ft 0 kts
2026-04-25 22:10 48.12038 16.54553 623 ft 0 kts
2026-04-25 22:10 48.12067 16.54560 624 ft 10 kts 13°
2026-04-25 22:10 48.12146 16.54588 622 ft 8 kts 358°
2026-04-25 22:11 48.12165 16.54582 623 ft 4 kts 345°
2026-04-25 22:11 48.12187 16.54577 614 ft 4 kts
2026-04-25 22:11 48.12225 16.54592 614 ft 9 kts 14°
2026-04-25 22:11 48.12242 16.54602 616 ft 2 kts 26°